Wetterdaten: Dienstag, 24.08.2021
Datum Zeit Temp. Aussen Temp. o. S. Temp +5cm Feuchte Auss Luftdruck Regen Sonnenschein Regendauer Solar Windben Empfang
24.08.2021 00:00 15,7 C 14,4 C 13,4 C 86 % 1025,9 hPa 0,0 l/m 0 min 0 min 0 W/m 3,2 km/h (1 Bft) 100,00 %
24.08.2021 00:02 15,6 C 14,4 C 13,4 C 86 % 1025,8 hPa 0,0 l/m 0 min 0 min 0 W/m 3,2 km/h (1 Bft) 94,74 %
24.08.2021 00:04 15,6 C 14,4 C 13,4 C 86 % 1025,8 hPa 0,0 l/m 0 min 0 min 0 W/m 3,2 km/h (1 Bft) 97,87 %
24.08.2021 00:08 15,6 C 14,4 C 13,4 C 86 % 1025,9 hPa 0,0 l/m 0 min 0 min 0 W/m 3,2 km/h (1 Bft) 97,89 %
24.08.2021 00:10 15,5 C 15,0 C 13,4 C 86 % 1025,9 hPa 0,0 l/m 0 min 0 min 0 W/m 6,4 km/h (2 Bft) 95,65 %
24.08.2021 00:12 15,5 C 15,0 C 13,4 C 86 % 1025,9 hPa 0,0 l/m 0 min 0 min 0 W/m 3,2 km/h (1 Bft) 95,74 %
24.08.2021 00:14 15,5 C 15,0 C 13,4 C 86 % 1025,9 hPa 0,0 l/m 0 min 0 min 0 W/m 3,2 km/h (1 Bft) 95,74 %
24.08.2021 00:16 15,5 C 15,0 C 13,4 C 86 % 1025,9 hPa 0,0 l/m 0 min 0 min 0 W/m 3,2 km/h (1 Bft) 93,62 %
24.08.2021 00:18 15,5 C 15,0 C 13,4 C 86 % 1025,9 hPa 0,0 l/m 0 min 0 min 0 W/m 3,2 km/h (1 Bft) 97,87 %
24.08.2021 00:20 15,5 C 15,0 C 13,4 C 86 % 1026,0 hPa 0,0 l/m 0 min 0 min 0 W/m 3,2 km/h (1 Bft) 97,87 %
24.08.2021 00:22 15,5 C 15,0 C 13,4 C 86 % 1026,0 hPa 0,0 l/m 0 min 0 min 0 W/m 0,0 km/h (0 Bft) 97,83 %
24.08.2021 00:24 15,5 C 15,0 C 13,4 C 86 % 1026,0 hPa 0,0 l/m 0 min 0 min 0 W/m 3,2 km/h (1 Bft) 93,62 %
24.08.2021 00:26 15,5 C 15,0 C 13,4 C 86 % 1026,0 hPa 0,0 l/m 0 min 0 min 0 W/m 3,2 km/h (1 Bft) 93,62 %
24.08.2021 00:28 15,5 C 15,0 C 13,4 C 86 % 1026,0 hPa 0,0 l/m 0 min 0 min 0 W/m 3,2 km/h (1 Bft) 93,62 %
24.08.2021 00:30 15,5 C 15,0 C 13,4 C 85 % 1026,0 hPa 0,0 l/m 0 min 0 min 0 W/m 3,2 km/h (1 Bft) 95,74 %
24.08.2021 00:32 15,5 C 15,0 C 13,4 C 85 % 1026,0 hPa 0,0 l/m 0 min 0 min 0 W/m 3,2 km/h (1 Bft) 97,87 %
24.08.2021 00:34 15,5 C 15,0 C 13,4 C 85 % 1026,0 hPa 0,0 l/m 0 min 0 min 0 W/m 3,2 km/h (1 Bft) 97,83 %
24.08.2021 00:36 15,5 C 15,0 C 13,4 C 85 % 1026,0 hPa 0,0 l/m 0 min 0 min 0 W/m 3,2 km/h (1 Bft) 95,74 %
24.08.2021 00:38 15,5 C 15,0 C 13,4 C 85 % 1026,0 hPa 0,0 l/m 0 min 0 min 0 W/m 3,2 km/h (1 Bft) 97,87 %
24.08.2021 00:40 15,5 C 15,0 C 13,4 C 85 % 1026,0 hPa 0,0 l/m 0 min 0 min 0 W/m 3,2 km/h (1 Bft) 95,74 %
24.08.2021 00:42 15,5 C 15,0 C 13,4 C 85 % 1026,0 hPa 0,0 l/m 0 min 0 min 0 W/m 3,2 km/h (1 Bft) 95,74 %
24.08.2021 00:44 15,5 C 15,0 C 13,4 C 85 % 1026,1 hPa 0,0 l/m 0 min 0 min 0 W/m 6,4 km/h (2 Bft) 95,74 %
24.08.2021 00:46 15,5 C 15,0 C 13,4 C 85 % 1026,1 hPa 0,0 l/m 0 min 0 min 0 W/m 3,2 km/h (1 Bft) 91,30 %
24.08.2021 00:48 15,5 C 15,0 C 13,4 C 85 % 1026,1 hPa 0,0 l/m 0 min 0 min 0 W/m 3,2 km/h (1 Bft) 95,74 %
24.08.2021 00:50 15,5 C 14,4 C 13,4 C 85 % 1026,1 hPa 0,0 l/m 0 min 0 min 0 W/m 3,2 km/h (1 Bft) 93,62 %
24.08.2021 00:52 15,5 C 14,4 C 13,4 C 85 % 1026,1 hPa 0,0 l/m 0 min 0 min 0 W/m 3,2 km/h (1 Bft) 95,74 %
24.08.2021 00:54 15,5 C 14,4 C 12,8 C 85 % 1026,1 hPa 0,0 l/m 0 min 0 min 0 W/m 3,2 km/h (1 Bft) 95,74 %
24.08.2021 00:56 15,5 C 14,4 C 12,8 C 85 % 1026,1 hPa 0,0 l/m 0 min 0 min 0 W/m 0,0 km/h (0 Bft) 95,65 %
24.08.2021 00:58 15,5 C 14,4 C 12,8 C 85 % 1026,1 hPa 0,0 l/m 0 min 0 min 0 W/m 6,4 km/h (2 Bft) 93,62 %
24.08.2021 01:00 15,5 C 14,4 C 12,8 C 85 % 1026,1 hPa 0,0 l/m 0 min 0 min 0 W/m 6,4 km/h (2 Bft) 95,74 %
24.08.2021 01:02 15,5 C 14,4 C 12,8 C 85 % 1026,1 hPa 0,0 l/m 0 min 0 min 0 W/m 3,2 km/h (1 Bft) 97,87 %
24.08.2021 01:04 15,5 C 14,4 C 12,8 C 85 % 1026,1 hPa 0,0 l/m 0 min 0 min 0 W/m 3,2 km/h (1 Bft) 97,87 %
24.08.2021 01:06 15,4 C 14,4 C 12,8 C 85 % 1026,0 hPa 0,0 l/m 0 min 0 min 0 W/m 0,0 km/h (0 Bft) 100,00 %
24.08.2021 01:08 15,4 C 14,4 C 12,8 C 85 % 1026,1 hPa 0,0 l/m 0 min 0 min 0 W/m 0,0 km/h (0 Bft) 97,83 %
24.08.2021 01:10 15,4 C 14,4 C 12,8 C 85 % 1026,1 hPa 0,0 l/m 0 min 0 min 0 W/m 0,0 km/h (0 Bft) 97,87 %
24.08.2021 01:12 15,4 C 13,9 C 12,8 C 85 % 1026,2 hPa 0,0 l/m 0 min 0 min 0 W/m 3,2 km/h (1 Bft) 97,87 %
24.08.2021 01:14 15,3 C 13,9 C 12,8 C 85 % 1026,2 hPa 0,0 l/m 0 min 0 min 0 W/m 3,2 km/h (1 Bft) 95,74 %
24.08.2021 01:16 15,3 C 13,9 C 12,8 C 85 % 1026,1 hPa 0,0 l/m 0 min 0 min 0 W/m 3,2 km/h (1 Bft) 97,87 %
24.08.2021 01:18 15,3 C 13,9 C 12,8 C 86 % 1026,1 hPa 0,0 l/m 0 min 0 min 0 W/m 0,0 km/h (0 Bft) 95,74 %
24.08.2021 01:20 15,3 C 13,9 C 12,8 C 86 % 1026,1 hPa 0,0 l/m 0 min 0 min 0 W/m 0,0 km/h (0 Bft) 97,83 %
24.08.2021 01:22 15,2 C 13,9 C 12,8 C 86 % 1026,1 hPa 0,0 l/m 0 min 0 min 0 W/m 3,2 km/h (1 Bft) 95,74 %
24.08.2021 01:24 15,2 C 13,9 C 12,8 C 86 % 1026,2 hPa 0,0 l/m 0 min 0 min 0 W/m 0,0 km/h (0 Bft) 97,87 %
24.08.2021 01:26 15,2 C 13,9 C 12,3 C 86 % 1026,2 hPa 0,0 l/m 0 min 0 min 0 W/m 0,0 km/h (0 Bft) 97,87 %
24.08.2021 01:28 15,1 C 13,9 C 12,3 C 86 % 1026,2 hPa 0,0 l/m 0 min 0 min 0 W/m 0,0 km/h (0 Bft) 97,87 %
24.08.2021 01:30 15,1 C 13,9 C 12,3 C 86 % 1026,2 hPa 0,0 l/m 0 min 0 min 0 W/m 0,0 km/h (0 Bft) 97,87 %
24.08.2021 01:32 15,1 C 13,9 C 12,3 C 86 % 1026,2 hPa 0,0 l/m 0 min 0 min 0 W/m 0,0 km/h (0 Bft) 93,48 %
24.08.2021 01:34 15,1 C 13,9 C 12,3 C 86 % 1026,2 hPa 0,0 l/m 0 min 0 min 0 W/m 0,0 km/h (0 Bft) 97,87 %
24.08.2021 01:36 15,0 C 13,9 C 12,3 C 86 % 1026,2 hPa 0,0 l/m 0 min 0 min 0 W/m 0,0 km/h (0 Bft) 93,62 %
24.08.2021 01:38 15,0 C 13,3 C 12,3 C 86 % 1026,2 hPa 0,0 l/m 0 min 0 min 0 W/m 0,0 km/h (0 Bft) 100,00 %
24.08.2021 01:40 15,0 C 13,3 C 12,3 C 86 % 1026,2 hPa 0,0 l/m 0 min 0 min 0 W/m 0,0 km/h (0 Bft) 97,87 %
24.08.2021 01:42 15,0 C 13,3 C 12,3 C 86 % 1026,2 hPa 0,0 l/m 0 min 0 min 0 W/m 0,0 km/h (0 Bft) 100,00 %
24.08.2021 01:44 14,9 C 13,3 C 12,3 C 87 % 1026,2 hPa 0,0 l/m 0 min 0 min 0 W/m 0,0 km/h (0 Bft) 100,00 %
24.08.2021 01:46 14,9 C 13,3 C 12,3 C 87 % 1026,2 hPa 0,0 l/m 0 min 0 min 0 W/m 0,0 km/h (0 Bft) 95,74 %
24.08.2021 01:48 14,9 C 13,3 C 12,3 C 87 % 1026,2 hPa 0,0 l/m 0 min 0 min 0 W/m 3,2 km/h (1 Bft) 97,87 %
24.08.2021 01:50 14,8 C 13,9 C 12,3 C 87 % 1026,2 hPa 0,0 l/m 0 min 0 min 0 W/m 3,2 km/h (1 Bft) 95,74 %
24.08.2021 01:52 14,8 C 13,9 C 12,3 C 87 % 1026,2 hPa 0,0 l/m 0 min 0 min 0 W/m 3,2 km/h (1 Bft) 97,87 %
24.08.2021 01:54 14,7 C 13,9 C 12,3 C 87 % 1026,2 hPa 0,0 l/m 0 min 0 min 0 W/m 3,2 km/h (1 Bft) 95,74 %
24.08.2021 01:56 14,7 C 13,9 C 12,3 C 87 % 1026,3 hPa 0,0 l/m 0 min 0 min 0 W/m 3,2 km/h (1 Bft) 97,83 %
24.08.2021 01:58 14,7 C 13,9 C 12,3 C 87 % 1026,3 hPa 0,0 l/m 0 min 0 min 0 W/m 0,0 km/h (0 Bft) 97,87 %
24.08.2021 02:00 14,6 C 13,9 C 12,3 C 87 % 1026,3 hPa 0,0 l/m 0 min 0 min 0 W/m 3,2 km/h (1 Bft) 97,87 %
24.08.2021 02:02 14,6 C 13,9 C 12,3 C 87 % 1026,2 hPa 0,0 l/m 0 min 0 min 0 W/m 3,2 km/h (1 Bft) 95,83 %
24.08.2021 02:04 14,6 C 13,9 C 12,8 C 87 % 1026,3 hPa 0,0 l/m 0 min 0 min 0 W/m 9,7 km/h (2 Bft) 97,87 %
24.08.2021 02:06 14,6 C 13,9 C 12,8 C 87 % 1026,3 hPa 0,0 l/m 0 min 0 min 0 W/m 3,2 km/h (1 Bft) 95,74 %
24.08.2021 02:08 14,6 C 13,9 C 12,8 C 86 % 1026,3 hPa 0,0 l/m 0 min 0 min 0 W/m 3,2 km/h (1 Bft) 97,83 %
24.08.2021 02:10 14,6 C 13,9 C 12,8 C 86 % 1026,3 hPa 0,0 l/m 0 min 0 min 0 W/m 9,7 km/h (2 Bft) 97,87 %
24.08.2021 02:12 14,7 C 13,9 C 12,8 C 86 % 1026,2 hPa 0,0 l/m 0 min 0 min 0 W/m 3,2 km/h (1 Bft) 97,87 %
24.08.2021 02:14 14,7 C 13,9 C 12,8 C 87 % 1026,3 hPa 0,0 l/m 0 min 0 min 0 W/m 3,2 km/h (1 Bft) 97,87 %
24.08.2021 02:16 14,7 C 13,9 C 12,8 C 86 % 1026,3 hPa 0,0 l/m 0 min 0 min 0 W/m 3,2 km/h (1 Bft) 100,00 %
24.08.2021 02:18 14,7 C 13,9 C 12,8 C 86 % 1026,3 hPa 0,0 l/m 0 min 0 min 0 W/m 0,0 km/h (0 Bft) 100,00 %
24.08.2021 02:20 14,7 C 13,9 C 12,8 C 86 % 1026,3 hPa 0,0 l/m 0 min 0 min 0 W/m 0,0 km/h (0 Bft) 100,00 %
24.08.2021 02:22 14,7 C 13,9 C 12,8 C 86 % 1026,3 hPa 0,0 l/m 0 min 0 min 0 W/m 3,2 km/h (1 Bft) 100,00 %
24.08.2021 02:24 14,7 C 13,9 C 12,8 C 86 % 1026,3 hPa 0,0 l/m 0 min 0 min 0 W/m 3,2 km/h (1 Bft) 97,87 %
24.08.2021 02:26 14,7 C 13,9 C 12,8 C 86 % 1026,3 hPa 0,0 l/m 0 min 0 min 0 W/m 3,2 km/h (1 Bft) 100,00 %
24.08.2021 02:28 14,7 C 13,9 C 12,8 C 86 % 1026,4 hPa 0,0 l/m 0 min 0 min 0 W/m 3,2 km/h (1 Bft) 100,00 %
24.08.2021 02:30 14,7 C 13,9 C 12,3 C 86 % 1026,3 hPa 0,0 l/m 0 min 0 min 0 W/m 3,2 km/h (1 Bft) 100,00 %
24.08.2021 02:32 14,6 C 13,9 C 12,8 C 86 % 1026,3 hPa 0,0 l/m 0 min 0 min 0 W/m 6,4 km/h (2 Bft) 100,00 %
24.08.2021 02:34 14,6 C 13,9 C 12,8 C 86 % 1026,3 hPa 0,0 l/m 0 min 0 min 0 W/m 3,2 km/h (1 Bft) 97,87 %
24.08.2021 02:36 14,6 C 13,9 C 12,8 C 86 % 1026,3 hPa 0,0 l/m 0 min 0 min 0 W/m 3,2 km/h (1 Bft) 97,87 %
24.08.2021 02:38 14,6 C 13,9 C 12,3 C 86 % 1026,3 hPa 0,0 l/m 0 min 0 min 0 W/m 6,4 km/h (2 Bft) 97,87 %
24.08.2021 02:40 14,6 C 13,9 C 12,3 C 86 % 1026,3 hPa 0,0 l/m 0 min 0 min 0 W/m 6,4 km/h (2 Bft) 97,87 %
24.08.2021 02:42 14,6 C 13,9 C 12,3 C 86 % 1026,3 hPa 0,0 l/m 0 min 0 min 0 W/m 3,2 km/h (1 Bft) 95,74 %
24.08.2021 02:44 14,6 C 13,9 C 12,3 C 86 % 1026,3 hPa 0,0 l/m 0 min 0 min 0 W/m 3,2 km/h (1 Bft) 97,83 %
24.08.2021 02:46 14,6 C 13,9 C 12,3 C 86 % 1026,4 hPa 0,0 l/m 0 min 0 min 0 W/m 0,0 km/h (0 Bft) 97,87 %
24.08.2021 02:48 14,6 C 13,9 C 12,3 C 86 % 1026,4 hPa 0,0 l/m 0 min 0 min 0 W/m 3,2 km/h (1 Bft) 97,87 %
24.08.2021 02:50 14,5 C 13,9 C 12,3 C 86 % 1026,4 hPa 0,0 l/m 0 min 0 min 0 W/m 3,2 km/h (1 Bft) 97,87 %
24.08.2021 02:52 14,5 C 13,9 C 12,3 C 86 % 1026,3 hPa 0,0 l/m 0 min 0 min 0 W/m 6,4 km/h (2 Bft) 97,87 %
24.08.2021 02:54 14,5 C 13,9 C 12,3 C 86 % 1026,4 hPa 0,0 l/m 0 min 0 min 0 W/m 6,4 km/h (2 Bft) 97,87 %
24.08.2021 02:56 14,5 C 13,9 C 12,3 C 86 % 1026,4 hPa 0,0 l/m 0 min 0 min 0 W/m 3,2 km/h (1 Bft) 97,83 %
24.08.2021 02:58 14,5 C 13,9 C 12,3 C 86 % 1026,4 hPa 0,0 l/m 0 min 0 min 0 W/m 3,2 km/h (1 Bft) 95,74 %
24.08.2021 03:00 14,5 C 13,9 C 12,3 C 86 % 1026,4 hPa 0,0 l/m 0 min 0 min 0 W/m 12,9 km/h (3 Bft) 97,87 %
24.08.2021 03:02 14,4 C 13,9 C 12,3 C 86 % 1026,3 hPa 0,0 l/m 0 min 0 min 0 W/m 3,2 km/h (1 Bft) 97,87 %
24.08.2021 03:04 14,4 C 13,9 C 12,3 C 86 % 1026,3 hPa 0,0 l/m 0 min 0 min 0 W/m 6,4 km/h (2 Bft) 95,74 %
24.08.2021 03:06 14,4 C 13,9 C 12,3 C 86 % 1026,3 hPa 0,0 l/m 0 min 0 min 0 W/m 3,2 km/h (1 Bft) 97,87 %
24.08.2021 03:08 14,4 C 13,3 C 12,3 C 86 % 1026,3 hPa 0,0 l/m 0 min 0 min 0 W/m 6,4 km/h (2 Bft) 97,83 %
24.08.2021 03:10 14,4 C 13,3 C 12,3 C 86 % 1026,3 hPa 0,0 l/m 0 min 0 min 0 W/m 9,7 km/h (2 Bft) 97,87 %
24.08.2021 03:12 14,4 C 13,3 C 12,3 C 86 % 1026,3 hPa 0,0 l/m 0 min 0 min 0 W/m 3,2 km/h (1 Bft) 97,87 %
24.08.2021 03:14 14,3 C 13,3 C 12,3 C 86 % 1026,3 hPa 0,0 l/m 0 min 0 min 0 W/m 3,2 km/h (1 Bft) 97,87 %
24.08.2021 03:16 14,3 C 13,3 C 12,3 C 86 % 1026,4 hPa 0,0 l/m 0 min 0 min 0 W/m 6,4 km/h (2 Bft) 97,87 %
24.08.2021 03:18 14,3 C 13,3 C 12,3 C 86 % 1026,3 hPa 0,0 l/m 0 min 0 min 0 W/m 3,2 km/h (1 Bft) 95,65 %
24.08.2021 03:20 14,3 C 13,3 C 12,3 C 86 % 1026,4 hPa 0,0 l/m 0 min 0 min 0 W/m 3,2 km/h (1 Bft) 100,00 %
24.08.2021 03:22 14,3 C 13,3 C 12,3 C 86 % 1026,3 hPa 0,0 l/m 0 min 0 min 0 W/m 3,2 km/h (1 Bft) 100,00 %
24.08.2021 03:24 14,3 C 13,3 C 12,3 C 86 % 1026,4 hPa 0,0 l/m 0 min 0 min 0 W/m 3,2 km/h (1 Bft) 100,00 %
24.08.2021 03:26 14,3 C 13,3 C 12,3 C 86 % 1026,4 hPa 0,0 l/m 0 min 0 min 0 W/m 3,2 km/h (1 Bft) 100,00 %
24.08.2021 03:28 14,2 C 13,3 C 12,3 C 86 % 1026,4 hPa 0,0 l/m 0 min 0 min 0 W/m 6,4 km/h (2 Bft) 98,00 %
24.08.2021 03:30 14,2 C 13,3 C 12,3 C 86 % 1026,4 hPa 0,0 l/m 0 min 0 min 0 W/m 3,2 km/h (1 Bft) 97,83 %
24.08.2021 03:32 14,2 C 13,9 C 12,3 C 86 % 1026,4 hPa 0,0 l/m 0 min 0 min 0 W/m 6,4 km/h (2 Bft) 97,96 %
24.08.2021 03:34 14,2 C 13,9 C 12,3 C 86 % 1026,4 hPa 0,0 l/m 0 min 0 min 0 W/m 6,4 km/h (2 Bft) 95,74 %
24.08.2021 03:36 14,2 C 13,9 C 12,3 C 86 % 1026,4 hPa 0,0 l/m 0 min 0 min 0 W/m 3,2 km/h (1 Bft) 94,29 %
24.08.2021 03:38 14,2 C 13,3 C 12,3 C 86 % 1026,4 hPa 0,0 l/m 0 min 0 min 0 W/m 6,4 km/h (2 Bft) 98,15 %
24.08.2021 03:40 14,2 C 13,3 C 12,3 C 86 % 1026,4 hPa 0,0 l/m 0 min 0 min 0 W/m 6,4 km/h (2 Bft) 97,87 %
24.08.2021 03:42 14,2 C 13,3 C 12,3 C 86 % 1026,4 hPa 0,0 l/m 0 min 0 min 0 W/m 6,4 km/h (2 Bft) 95,65 %
24.08.2021 03:44 14,2 C 13,3 C 12,3 C 86 % 1026,5 hPa 0,0 l/m 0 min 0 min 0 W/m 3,2 km/h (1 Bft) 97,87 %
24.08.2021 03:46 14,2 C 13,3 C 12,3 C 86 % 1026,5 hPa 0,0 l/m 0 min 0 min 0 W/m 3,2 km/h (1 Bft) 98,00 %
24.08.2021 03:48 14,2 C 13,3 C 12,3 C 86 % 1026,4 hPa 0,0 l/m 0 min 0 min 0 W/m 3,2 km/h (1 Bft) 95,74 %
24.08.2021 03:50 14,2 C 13,3 C 12,3 C 86 % 1026,5 hPa 0,0 l/m 0 min 0 min 0 W/m 3,2 km/h (1 Bft) 97,87 %
24.08.2021 03:52 14,2 C 13,3 C 12,3 C 86 % 1026,5 hPa 0,0 l/m 0 min 0 min 0 W/m 9,7 km/h (2 Bft) 97,87 %
24.08.2021 03:54 14,2 C 13,3 C 12,3 C 86 % 1026,5 hPa 0,0 l/m 0 min 0 min 0 W/m 3,2 km/h (1 Bft) 97,83 %
24.08.2021 03:56 14,2 C 13,3 C 12,3 C 86 % 1026,5 hPa 0,0 l/m 0 min 0 min 0 W/m 6,4 km/h (2 Bft) 97,96 %
24.08.2021 03:58 14,2 C 13,3 C 12,3 C 86 % 1026,5 hPa 0,0 l/m 0 min 0 min 0 W/m 6,4 km/h (2 Bft) 97,14 %
24.08.2021 04:00 14,2 C 13,3 C 12,3 C 86 % 1026,5 hPa 0,0 l/m 0 min 0 min 0 W/m 3,2 km/h (1 Bft) 95,74 %
24.08.2021 04:02 14,2 C 13,3 C 12,3 C 86 % 1026,5 hPa 0,0 l/m 0 min 0 min 0 W/m 3,2 km/h (1 Bft) 100,00 %
24.08.2021 04:04 14,2 C 13,3 C 12,3 C 86 % 1026,5 hPa 0,0 l/m 0 min 0 min 0 W/m 3,2 km/h (1 Bft) 96,00 %
24.08.2021 04:06 14,2 C 13,3 C 12,3 C 86 % 1026,5 hPa 0,0 l/m 0 min 0 min 0 W/m 3,2 km/h (1 Bft) 95,83 %
24.08.2021 04:08 14,2 C 13,3 C 12,3 C 86 % 1026,5 hPa 0,0 l/m 0 min 0 min 0 W/m 3,2 km/h (1 Bft) 100,00 %
24.08.2021 04:10 14,2 C 13,3 C 12,3 C 86 % 1026,5 hPa 0,0 l/m 0 min 0 min 0 W/m 3,2 km/h (1 Bft) 95,74 %
24.08.2021 04:12 14,2 C 13,3 C 12,3 C 86 % 1026,5 hPa 0,0 l/m 0 min 0 min 0 W/m 6,4 km/h (2 Bft) 97,87 %
24.08.2021 04:14 14,2 C 13,3 C 12,3 C 86 % 1026,5 hPa 0,0 l/m 0 min 0 min 0 W/m 6,4 km/h (2 Bft) 97,87 %
24.08.2021 04:16 14,2 C 13,3 C 12,3 C 86 % 1026,5 hPa 0,0 l/m 0 min 0 min 0 W/m 9,7 km/h (2 Bft) 98,15 %
24.08.2021 04:18 14,2 C 13,3 C 12,3 C 86 % 1026,5 hPa 0,0 l/m 0 min 0 min 0 W/m 3,2 km/h (1 Bft) 96,00 %
24.08.2021 04:20 14,2 C 13,3 C 12,3 C 86 % 1026,5 hPa 0,0 l/m 0 min 0 min 0 W/m 3,2 km/h (1 Bft) 97,87 %
24.08.2021 04:22 14,2 C 13,3 C 12,3 C 86 % 1026,5 hPa 0,0 l/m 0 min 0 min 0 W/m 6,4 km/h (2 Bft) 95,74 %
24.08.2021 04:24 14,2 C 13,3 C 12,3 C 86 % 1026,5 hPa 0,0 l/m 0 min 0 min 0 W/m 6,4 km/h (2 Bft) 95,74 %
24.08.2021 04:26 14,1 C 13,3 C 12,3 C 86 % 1026,5 hPa 0,0 l/m 0 min 0 min 0 W/m 6,4 km/h (2 Bft) 97,87 %
24.08.2021 04:28 14,1 C 13,3 C 12,3 C 86 % 1026,5 hPa 0,0 l/m 0 min 0 min 0 W/m 6,4 km/h (2 Bft) 95,74 %
24.08.2021 04:30 14,1 C 13,3 C 11,7 C 86 % 1026,5 hPa 0,0 l/m 0 min 0 min 0 W/m 6,4 km/h (2 Bft) 97,83 %
24.08.2021 04:32 14,1 C 13,3 C 11,7 C 86 % 1026,5 hPa 0,0 l/m 0 min 0 min 0 W/m 3,2 km/h (1 Bft) 95,74 %
24.08.2021 04:34 14,0 C 13,3 C 11,7 C 86 % 1026,5 hPa 0,0 l/m 0 min 0 min 0 W/m 6,4 km/h (2 Bft) 95,74 %
24.08.2021 04:36 14,0 C 13,3 C 11,7 C 87 % 1026,5 hPa 0,0 l/m 0 min 0 min 0 W/m 3,2 km/h (1 Bft) 97,87 %
24.08.2021 04:38 14,0 C 13,3 C 11,7 C 87 % 1026,6 hPa 0,0 l/m 0 min 0 min 0 W/m 3,2 km/h (1 Bft) 97,87 %
24.08.2021 04:40 14,0 C 13,3 C 11,7 C 87 % 1026,5 hPa 0,0 l/m 0 min 0 min 0 W/m 6,4 km/h (2 Bft) 95,74 %
24.08.2021 04:42 14,0 C 13,3 C 11,7 C 87 % 1026,6 hPa 0,0 l/m 0 min 0 min 0 W/m 3,2 km/h (1 Bft) 97,83 %
24.08.2021 04:44 14,0 C 12,8 C 11,7 C 87 % 1026,6 hPa 0,0 l/m 0 min 0 min 0 W/m 3,2 km/h (1 Bft) 95,74 %
24.08.2021 04:46 14,0 C 12,8 C 11,7 C 87 % 1026,6 hPa 0,0 l/m 0 min 0 min 0 W/m 6,4 km/h (2 Bft) 97,87 %
24.08.2021 04:48 14,0 C 12,8 C 11,7 C 87 % 1026,6 hPa 0,0 l/m 0 min 0 min 0 W/m 9,7 km/h (2 Bft) 97,87 %
24.08.2021 04:50 13,9 C 12,8 C 11,7 C 87 % 1026,7 hPa 0,0 l/m 0 min 0 min 0 W/m 6,4 km/h (2 Bft) 95,74 %
24.08.2021 04:52 13,9 C 12,8 C 11,7 C 87 % 1026,7 hPa 0,0 l/m 0 min 0 min 0 W/m 3,2 km/h (1 Bft) 95,65 %
24.08.2021 04:54 13,9 C 12,8 C 11,7 C 87 % 1026,7 hPa 0,0 l/m 0 min 0 min 0 W/m 9,7 km/h (2 Bft) 97,87 %
24.08.2021 04:56 13,9 C 12,8 C 11,7 C 87 % 1026,7 hPa 0,0 l/m 0 min 0 min 0 W/m 12,9 km/h (3 Bft) 97,87 %
24.08.2021 04:58 13,9 C 12,8 C 11,7 C 87 % 1026,7 hPa 0,0 l/m 0 min 0 min 0 W/m 3,2 km/h (1 Bft) 100,00 %
24.08.2021 05:00 13,9 C 12,8 C 11,7 C 87 % 1026,7 hPa 0,0 l/m 0 min 0 min 0 W/m 6,4 km/h (2 Bft) 97,87 %
24.08.2021 05:02 13,8 C 12,8 C 11,7 C 87 % 1026,6 hPa 0,0 l/m 0 min 0 min 0 W/m 6,4 km/h (2 Bft) 93,62 %
24.08.2021 05:04 13,8 C 12,8 C 11,7 C 87 % 1026,7 hPa 0,0 l/m 0 min 0 min 0 W/m 6,4 km/h (2 Bft) 97,83 %
24.08.2021 05:06 13,8 C 12,8 C 11,7 C 87 % 1026,7 hPa 0,0 l/m 0 min 0 min 0 W/m 3,2 km/h (1 Bft) 97,87 %
24.08.2021 05:08 13,8 C 12,8 C 11,7 C 87 % 1026,7 hPa 0,0 l/m 0 min 0 min 0 W/m 6,4 km/h (2 Bft) 54,55 %
24.08.2021 05:10 13,8 C 12,8 C 11,7 C 87 % 1026,7 hPa 0,0 l/m 0 min 0 min 0 W/m 6,4 km/h (2 Bft) 97,87 %
24.08.2021 05:12 13,8 C 12,8 C 11,7 C 87 % 1026,8 hPa 0,0 l/m 0 min 0 min 0 W/m 3,2 km/h (1 Bft) 93,62 %
24.08.2021 05:14 13,7 C 12,8 C 11,7 C 87 % 1026,8 hPa 0,0 l/m 0 min 0 min 0 W/m 6,4 km/h (2 Bft) 97,87 %
24.08.2021 05:16 13,7 C 12,8 C 11,7 C 87 % 1026,8 hPa 0,0 l/m 0 min 0 min 0 W/m 6,4 km/h (2 Bft) 93,48 %
24.08.2021 05:18 13,6 C 12,8 C 11,7 C 88 % 1026,8 hPa 0,0 l/m 0 min 0 min 0 W/m 3,2 km/h (1 Bft) 93,62 %
24.08.2021 05:20 13,6 C 12,8 C 11,7 C 88 % 1026,9 hPa 0,0 l/m 0 min 0 min 0 W/m 3,2 km/h (1 Bft) 95,74 %
24.08.2021 05:22 13,6 C 12,8 C 11,7 C 88 % 1026,8 hPa 0,0 l/m 0 min 0 min 0 W/m 9,7 km/h (2 Bft) 95,74 %
24.08.2021 05:24 13,6 C 12,8 C 11,7 C 88 % 1026,8 hPa 0,0 l/m 0 min 0 min 0 W/m 6,4 km/h (2 Bft) 95,74 %
24.08.2021 05:26 13,6 C 12,8 C 11,7 C 88 % 1026,8 hPa 0,0 l/m 0 min 0 min 0 W/m 3,2 km/h (1 Bft) 93,62 %
24.08.2021 05:28 13,6 C 12,8 C 11,7 C 88 % 1026,8 hPa 0,0 l/m 0 min 0 min 0 W/m 3,2 km/h (1 Bft) 95,65 %
24.08.2021 05:30 13,5 C 12,8 C 11,7 C 88 % 1026,8 hPa 0,0 l/m 0 min 0 min 0 W/m 6,4 km/h (2 Bft) 95,74 %
24.08.2021 05:32 13,5 C 12,8 C 11,7 C 88 % 1026,8 hPa 0,0 l/m 0 min 0 min 0 W/m 3,2 km/h (1 Bft) 93,62 %
24.08.2021 05:34 13,5 C 12,8 C 11,7 C 88 % 1026,8 hPa 0,0 l/m 0 min 0 min 0 W/m 3,2 km/h (1 Bft) 95,74 %
24.08.2021 05:36 13,5 C 12,8 C 11,7 C 88 % 1026,8 hPa 0,0 l/m 0 min 0 min 0 W/m 3,2 km/h (1 Bft) 95,74 %
24.08.2021 05:38 13,5 C 12,8 C 11,1 C 88 % 1026,8 hPa 0,0 l/m 0 min 0 min 0 W/m 3,2 km/h (1 Bft) 95,74 %
24.08.2021 05:40 13,5 C 12,8 C 11,1 C 88 % 1026,9 hPa 0,0 l/m 0 min 0 min 0 W/m 3,2 km/h (1 Bft) 95,65 %
24.08.2021 05:42 13,4 C 12,2 C 11,1 C 88 % 1026,8 hPa 0,0 l/m 0 min 0 min 0 W/m 3,2 km/h (1 Bft) 97,87 %
24.08.2021 05:44 13,4 C 12,2 C 11,1 C 88 % 1026,9 hPa 0,0 l/m 0 min 0 min 0 W/m 3,2 km/h (1 Bft) 97,87 %
24.08.2021 05:46 13,4 C 12,2 C 11,1 C 88 % 1026,8 hPa 0,0 l/m 0 min 0 min 0 W/m 3,2 km/h (1 Bft) 100,00 %
24.08.2021 05:48 13,4 C 12,2 C 11,1 C 88 % 1026,8 hPa 0,0 l/m 0 min 0 min 0 W/m 3,2 km/h (1 Bft) 100,00 %
24.08.2021 05:50 13,4 C 12,2 C 11,1 C 88 % 1026,8 hPa 0,0 l/m 0 min 0 min 0 W/m 0,0 km/h (0 Bft) 100,00 %
24.08.2021 05:52 13,3 C 12,2 C 11,1 C 88 % 1026,8 hPa 0,0 l/m 0 min 0 min 0 W/m 3,2 km/h (1 Bft) 100,00 %
24.08.2021 05:54 13,3 C 12,2 C 11,1 C 88 % 1026,8 hPa 0,0 l/m 0 min 0 min 0 W/m 0,0 km/h (0 Bft) 100,00 %
24.08.2021 05:56 13,3 C 12,2 C 11,1 C 88 % 1026,9 hPa 0,0 l/m 0 min 0 min 0 W/m 0,0 km/h (0 Bft) 100,00 %
24.08.2021 05:58 13,3 C 12,2 C 11,1 C 88 % 1026,8 hPa 0,0 l/m 0 min 0 min 0 W/m 6,4 km/h (2 Bft) 100,00 %
24.08.2021 06:00 13,2 C 12,2 C 11,1 C 88 % 1026,9 hPa 0,0 l/m 0 min 0 min 0 W/m 3,2 km/h (1 Bft) 100,00 %
24.08.2021 06:02 13,2 C 12,2 C 11,1 C 88 % 1026,8 hPa 0,0 l/m 0 min 0 min 0 W/m 3,2 km/h (1 Bft) 100,00 %
24.08.2021 06:04 13,1 C 12,2 C 11,1 C 89 % 1026,9 hPa 0,0 l/m 0 min 0 min 0 W/m 0,0 km/h (0 Bft) 100,00 %
24.08.2021 06:08 13,1 C 11,7 C 10,6 C 89 % 1026,9 hPa 0,0 l/m 0 min 0 min 0 W/m 0,0 km/h (0 Bft) 100,00 %
24.08.2021 06:10 13,1 C 11,7 C 10,6 C 89 % 1026,9 hPa 0,0 l/m 0 min 0 min 0 W/m 0,0 km/h (0 Bft) 100,00 %
24.08.2021 06:12 13,0 C 11,7 C 10,6 C 89 % 1026,9 hPa 0,0 l/m 0 min 0 min 0 W/m 0,0 km/h (0 Bft) 100,00 %
24.08.2021 06:14 13,0 C 11,7 C 10,6 C 89 % 1027,0 hPa 0,0 l/m 0 min 0 min 0 W/m 3,2 km/h (1 Bft) 97,83 %
24.08.2021 06:16 13,0 C 11,7 C 10,6 C 89 % 1027,0 hPa 0,0 l/m 0 min 0 min 0 W/m 0,0 km/h (0 Bft) 100,00 %
24.08.2021 06:18 12,9 C 11,7 C 10,6 C 89 % 1027,0 hPa 0,0 l/m 0 min 0 min 0 W/m 0,0 km/h (0 Bft) 100,00 %
24.08.2021 06:20 12,9 C 11,7 C 10,6 C 89 % 1027,0 hPa 0,0 l/m 0 min 0 min 0 W/m 0,0 km/h (0 Bft) 97,87 %
24.08.2021 06:22 12,9 C 11,7 C 10,6 C 89 % 1027,0 hPa 0,0 l/m 0 min 0 min 0 W/m 0,0 km/h (0 Bft) 100,00 %
24.08.2021 06:24 12,9 C 11,7 C 10,6 C 90 % 1027,0 hPa 0,0 l/m 0 min 0 min 0 W/m 3,2 km/h (1 Bft) 100,00 %
24.08.2021 06:26 12,8 C 11,7 C 10,6 C 90 % 1027,0 hPa 0,0 l/m 0 min 0 min 0 W/m 3,2 km/h (1 Bft) 100,00 %
24.08.2021 06:28 12,8 C 11,7 C 10,6 C 90 % 1027,0 hPa 0,0 l/m 0 min 0 min 0 W/m 3,2 km/h (1 Bft) 100,00 %
24.08.2021 06:30 12,8 C 11,7 C 10,6 C 90 % 1027,0 hPa 0,0 l/m 0 min 0 min 0 W/m 3,2 km/h (1 Bft) 100,00 %
24.08.2021 06:32 12,8 C 11,7 C 10,6 C 90 % 1027,0 hPa 0,0 l/m 0 min 0 min 0 W/m 0,0 km/h (0 Bft) 100,00 %
24.08.2021 06:34 12,8 C 11,7 C 10,6 C 90 % 1027,0 hPa 0,0 l/m 0 min 0 min 0 W/m 3,2 km/h (1 Bft) 100,00 %
24.08.2021 06:36 12,7 C 11,7 C 10,6 C 90 % 1027,0 hPa 0,0 l/m 0 min 0 min 0 W/m 3,2 km/h (1 Bft) 100,00 %
24.08.2021 06:38 12,7 C 11,7 C 11,1 C 90 % 1027,0 hPa 0,0 l/m 0 min 0 min 4 W/m 6,4 km/h (2 Bft) 100,00 %
24.08.2021 06:40 12,7 C 11,7 C 11,1 C 90 % 1027,0 hPa 0,0 l/m 0 min 0 min 5 W/m 3,2 km/h (1 Bft) 100,00 %
24.08.2021 06:42 12,7 C 11,7 C 11,1 C 91 % 1027,1 hPa 0,0 l/m 0 min 0 min 6 W/m 3,2 km/h (1 Bft) 97,87 %
24.08.2021 06:44 12,7 C 11,7 C 11,1 C 91 % 1027,1 hPa 0,0 l/m 0 min 0 min 7 W/m 3,2 km/h (1 Bft) 100,00 %
24.08.2021 06:46 12,7 C 11,7 C 11,1 C 91 % 1027,1 hPa 0,0 l/m 0 min 0 min 8 W/m 3,2 km/h (1 Bft) 100,00 %
24.08.2021 06:48 12,7 C 11,7 C 11,1 C 91 % 1027,1 hPa 0,0 l/m 0 min 0 min 9 W/m 3,2 km/h (1 Bft) 100,00 %
24.08.2021 06:50 12,7 C 11,7 C 11,1 C 91 % 1027,2 hPa 0,0 l/m 0 min 0 min 11 W/m 3,2 km/h (1 Bft) 100,00 %
24.08.2021 06:52 12,7 C 12,2 C 11,1 C 91 % 1027,2 hPa 0,0 l/m 0 min 0 min 11 W/m 3,2 km/h (1 Bft) 100,00 %
24.08.2021 06:54 12,7 C 12,2 C 11,1 C 91 % 1027,2 hPa 0,0 l/m 0 min 0 min 12 W/m 3,2 km/h (1 Bft) 100,00 %
24.08.2021 06:56 12,7 C 12,2 C 11,1 C 91 % 1027,2 hPa 0,0 l/m 0 min 0 min 13 W/m 3,2 km/h (1 Bft) 100,00 %
24.08.2021 06:58 12,7 C 12,2 C 11,1 C 91 % 1027,2 hPa 0,0 l/m 0 min 0 min 14 W/m 0,0 km/h (0 Bft) 97,87 %
24.08.2021 07:00 12,7 C 12,2 C 11,1 C 91 % 1027,2 hPa 0,0 l/m 0 min 0 min 16 W/m 3,2 km/h (1 Bft) 97,83 %
24.08.2021 07:02 12,7 C 12,2 C 11,1 C 91 % 1027,2 hPa 0,0 l/m 0 min 0 min 17 W/m 3,2 km/h (1 Bft) 95,74 %
24.08.2021 07:04 12,7 C 12,2 C 11,1 C 91 % 1027,2 hPa 0,0 l/m 0 min 0 min 18 W/m 3,2 km/h (1 Bft) 97,87 %
24.08.2021 07:06 12,7 C 12,2 C 11,1 C 92 % 1027,3 hPa 0,0 l/m 0 min 0 min 19 W/m 3,2 km/h (1 Bft) 97,87 %
24.08.2021 07:08 12,7 C 12,2 C 11,1 C 92 % 1027,3 hPa 0,0 l/m 0 min 0 min 19 W/m 6,4 km/h (2 Bft) 95,74 %
24.08.2021 07:10 12,7 C 12,2 C 11,1 C 92 % 1027,3 hPa 0,0 l/m 0 min 0 min 21 W/m 3,2 km/h (1 Bft) 95,74 %
24.08.2021 07:12 12,7 C 12,2 C 11,1 C 92 % 1027,3 hPa 0,0 l/m 0 min 0 min 22 W/m 3,2 km/h (1 Bft) 97,83 %
24.08.2021 07:14 12,7 C 12,2 C 11,1 C 92 % 1027,3 hPa 0,0 l/m 0 min 0 min 23 W/m 6,4 km/h (2 Bft) 97,87 %
24.08.2021 07:16 12,7 C 12,2 C 11,1 C 92 % 1027,3 hPa 0,0 l/m 0 min 0 min 25 W/m 3,2 km/h (1 Bft) 97,87 %
24.08.2021 07:18 12,7 C 12,2 C 11,1 C 92 % 1027,4 hPa 0,0 l/m 0 min 0 min 25 W/m 3,2 km/h (1 Bft) 85,11 %
24.08.2021 07:20 12,8 C 12,2 C 11,1 C 92 % 1027,4 hPa 0,0 l/m 0 min 0 min 26 W/m 0,0 km/h (0 Bft) 93,62 %
24.08.2021 07:22 12,8 C 12,2 C 11,1 C 92 % 1027,4 hPa 0,0 l/m 0 min 0 min 26 W/m 3,2 km/h (1 Bft) 93,62 %
24.08.2021 07:24 12,8 C 12,2 C 11,1 C 92 % 1027,4 hPa 0,0 l/m 0 min 0 min 28 W/m 3,2 km/h (1 Bft) 93,48 %
24.08.2021 07:26 12,8 C 12,2 C 11,1 C 92 % 1027,5 hPa 0,0 l/m 0 min 0 min 29 W/m 3,2 km/h (1 Bft) 93,62 %
24.08.2021 07:28 12,8 C 12,2 C 11,1 C 92 % 1027,4 hPa 0,0 l/m 0 min 0 min 30 W/m 0,0 km/h (0 Bft) 93,62 %
24.08.2021 07:30 12,8 C 12,2 C 11,1 C 92 % 1027,4 hPa 0,0 l/m 0 min 0 min 31 W/m 3,2 km/h (1 Bft) 51,11 %
24.08.2021 07:32 12,8 C 12,2 C 11,1 C 92 % 1027,5 hPa 0,0 l/m 0 min 0 min 32 W/m 3,2 km/h (1 Bft) 91,49 %
24.08.2021 07:34 12,9 C 12,2 C 11,1 C 92 % 1027,4 hPa 0,0 l/m 0 min 0 min 33 W/m 6,4 km/h (2 Bft) 93,62 %
24.08.2021 07:36 12,9 C 12,2 C 11,1 C 92 % 1027,4 hPa 0,0 l/m 0 min 0 min 33 W/m 9,7 km/h (2 Bft) 95,65 %
24.08.2021 07:38 12,9 C 12,8 C 11,7 C 92 % 1027,4 hPa 0,0 l/m 0 min 0 min 34 W/m 6,4 km/h (2 Bft) 95,74 %
24.08.2021 07:40 12,9 C 12,8 C 11,7 C 92 % 1027,5 hPa 0,0 l/m 0 min 0 min 35 W/m 3,2 km/h (1 Bft) 95,74 %
24.08.2021 07:42 12,9 C 12,8 C 11,7 C 92 % 1027,4 hPa 0,0 l/m 0 min 0 min 36 W/m 3,2 km/h (1 Bft) 95,74 %
24.08.2021 07:44 12,9 C 12,8 C 11,7 C 92 % 1027,4 hPa 0,0 l/m 0 min 0 min 37 W/m 6,4 km/h (2 Bft) 95,74 %
24.08.2021 07:46 13,0 C 12,8 C 11,7 C 92 % 1027,5 hPa 0,0 l/m 0 min 0 min 37 W/m 3,2 km/h (1 Bft) 91,49 %
24.08.2021 07:48 13,0 C 12,8 C 11,7 C 92 % 1027,5 hPa 0,0 l/m 0 min 0 min 39 W/m 3,2 km/h (1 Bft) 93,48 %
24.08.2021 07:50 13,0 C 12,8 C 11,7 C 92 % 1027,4 hPa 0,0 l/m 0 min 0 min 39 W/m 3,2 km/h (1 Bft) 91,49 %
24.08.2021 07:52 13,0 C 12,8 C 11,7 C 92 % 1027,5 hPa 0,0 l/m 0 min 0 min 40 W/m 6,4 km/h (2 Bft) 93,62 %
24.08.2021 07:54 13,1 C 12,8 C 11,7 C 93 % 1027,5 hPa 0,0 l/m 0 min 0 min 40 W/m 3,2 km/h (1 Bft) 93,62 %
24.08.2021 07:56 13,1 C 12,8 C 11,7 C 93 % 1027,5 hPa 0,0 l/m 0 min 0 min 42 W/m 6,4 km/h (2 Bft) 95,74 %
24.08.2021 07:58 13,1 C 12,8 C 11,7 C 93 % 1027,5 hPa 0,0 l/m 0 min 0 min 42 W/m 6,4 km/h (2 Bft) 97,87 %
24.08.2021 08:00 13,1 C 12,8 C 11,7 C 93 % 1027,5 hPa 0,0 l/m 0 min 0 min 43 W/m 6,4 km/h (2 Bft) 97,83 %
24.08.2021 08:02 13,2 C 12,8 C 11,7 C 93 % 1027,5 hPa 0,0 l/m 0 min 0 min 44 W/m 3,2 km/h (1 Bft) 95,74 %
24.08.2021 08:04 13,3 C 12,8 C 11,7 C 93 % 1027,5 hPa 0,0 l/m 0 min 0 min 44 W/m 6,4 km/h (2 Bft) 93,62 %
24.08.2021 08:06 13,3 C 13,3 C 12,3 C 93 % 1027,6 hPa 0,0 l/m 0 min 0 min 46 W/m 6,4 km/h (2 Bft) 97,87 %
24.08.2021 08:08 13,3 C 13,3 C 12,3 C 93 % 1027,6 hPa 0,0 l/m 0 min 0 min 46 W/m 6,4 km/h (2 Bft) 95,74 %
24.08.2021 08:10 13,4 C 13,3 C 12,3 C 93 % 1027,6 hPa 0,0 l/m 0 min 0 min 47 W/m 6,4 km/h (2 Bft) 95,65 %
24.08.2021 08:12 13,4 C 13,3 C 12,3 C 93 % 1027,6 hPa 0,0 l/m 0 min 0 min 47 W/m 6,4 km/h (2 Bft) 100,00 %
24.08.2021 08:14 13,5 C 13,3 C 12,3 C 93 % 1027,6 hPa 0,0 l/m 0 min 0 min 49 W/m 6,4 km/h (2 Bft) 100,00 %
24.08.2021 08:16 13,5 C 13,3 C 12,3 C 93 % 1027,7 hPa 0,0 l/m 0 min 0 min 49 W/m 6,4 km/h (2 Bft) 100,00 %
24.08.2021 08:18 13,5 C 13,3 C 12,3 C 93 % 1027,7 hPa 0,0 l/m 0 min 0 min 51 W/m 6,4 km/h (2 Bft) 100,00 %
24.08.2021 08:20 13,6 C 13,3 C 12,3 C 93 % 1027,6 hPa 0,0 l/m 0 min 0 min 51 W/m 0,0 km/h (0 Bft) 95,74 %
24.08.2021 08:22 13,6 C 13,3 C 12,3 C 93 % 1027,7 hPa 0,0 l/m 0 min 0 min 52 W/m 6,4 km/h (2 Bft) 100,00 %
24.08.2021 08:24 13,6 C 13,9 C 12,3 C 93 % 1027,7 hPa 0,0 l/m 0 min 0 min 53 W/m 3,2 km/h (1 Bft) 100,00 %
24.08.2021 08:26 13,7 C 13,9 C 12,3 C 93 % 1027,7 hPa 0,0 l/m 0 min 0 min 54 W/m 3,2 km/h (1 Bft) 100,00 %
24.08.2021 08:28 13,8 C 13,9 C 12,3 C 93 % 1027,7 hPa 0,0 l/m 0 min 0 min 55 W/m 3,2 km/h (1 Bft) 97,87 %
24.08.2021 08:30 13,8 C 13,9 C 12,3 C 93 % 1027,8 hPa 0,0 l/m 0 min 0 min 56 W/m 3,2 km/h (1 Bft) 100,00 %
24.08.2021 08:32 13,8 C 13,9 C 12,3 C 93 % 1027,7 hPa 0,0 l/m 0 min 0 min 57 W/m 3,2 km/h (1 Bft) 100,00 %
24.08.2021 08:34 13,9 C 13,9 C 12,8 C 93 % 1027,8 hPa 0,0 l/m 0 min 0 min 58 W/m 6,4 km/h (2 Bft) 100,00 %
24.08.2021 08:36 13,9 C 13,9 C 12,8 C 93 % 1027,8 hPa 0,0 l/m 0 min 0 min 59 W/m 6,4 km/h (2 Bft) 100,00 %
24.08.2021 08:38 14,0 C 13,9 C 12,8 C 93 % 1027,7 hPa 0,0 l/m 0 min 0 min 60 W/m 9,7 km/h (2 Bft) 100,00 %
24.08.2021 08:40 14,0 C 13,9 C 12,8 C 92 % 1027,8 hPa 0,0 l/m 0 min 0 min 61 W/m 9,7 km/h (2 Bft) 100,00 %
24.08.2021 08:42 14,0 C 13,9 C 12,8 C 92 % 1027,8 hPa 0,0 l/m 0 min 0 min 62 W/m 6,4 km/h (2 Bft) 100,00 %
24.08.2021 08:44 14,1 C 13,9 C 12,8 C 92 % 1027,8 hPa 0,0 l/m 0 min 0 min 63 W/m 3,2 km/h (1 Bft) 100,00 %
24.08.2021 08:46 14,1 C 14,4 C 12,8 C 92 % 1027,8 hPa 0,0 l/m 0 min 0 min 100 W/m 9,7 km/h (2 Bft) 100,00 %
24.08.2021 08:48 14,2 C 14,4 C 12,8 C 92 % 1027,8 hPa 0,0 l/m 2 min 0 min 227 W/m 3,2 km/h (1 Bft) 97,87 %
24.08.2021 08:50 14,2 C 14,4 C 12,8 C 92 % 1027,8 hPa 0,0 l/m 2 min 0 min 268 W/m 6,4 km/h (2 Bft) 95,74 %
24.08.2021 08:52 14,2 C 14,4 C 12,8 C 92 % 1027,8 hPa 0,0 l/m 2 min 0 min 273 W/m 3,2 km/h (1 Bft) 97,87 %
24.08.2021 08:54 14,3 C 14,4 C 13,4 C 92 % 1027,8 hPa 0,0 l/m 2 min 0 min 281 W/m 6,4 km/h (2 Bft) 97,87 %
24.08.2021 08:56 14,4 C 14,4 C 13,4 C 92 % 1027,8 hPa 0,0 l/m 2 min 0 min 288 W/m 6,4 km/h (2 Bft) 97,14 %
24.08.2021 08:58 14,5 C 14,4 C 13,4 C 92 % 1027,8 hPa 0,0 l/m 2 min 0 min 292 W/m 6,4 km/h (2 Bft) 97,87 %
24.08.2021 09:00 14,5 C 15,0 C 13,4 C 92 % 1027,8 hPa 0,0 l/m 2 min 0 min 298 W/m 6,4 km/h (2 Bft) 97,83 %
24.08.2021 09:02 14,6 C 15,6 C 13,4 C 92 % 1027,8 hPa 0,0 l/m 2 min 0 min 304 W/m 6,4 km/h (2 Bft) 95,74 %
24.08.2021 09:04 14,8 C 16,7 C 13,4 C 91 % 1027,8 hPa 0,0 l/m 2 min 0 min 311 W/m 6,4 km/h (2 Bft) 97,87 %
24.08.2021 09:06 14,9 C 17,8 C 13,4 C 91 % 1027,7 hPa 0,0 l/m 2 min 0 min 318 W/m 16,1 km/h (3 Bft) 95,74 %
24.08.2021 09:08 15,0 C 18,3 C 13,4 C 91 % 1027,8 hPa 0,0 l/m 2 min 0 min 325 W/m 12,9 km/h (3 Bft) 98,18 %
24.08.2021 09:10 15,1 C 18,9 C 13,9 C 91 % 1027,8 hPa 0,0 l/m 2 min 0 min 332 W/m 12,9 km/h (3 Bft) 97,83 %
24.08.2021 09:12 15,3 C 19,4 C 13,9 C 90 % 1027,8 hPa 0,0 l/m 2 min 0 min 337 W/m 12,9 km/h (3 Bft) 96,00 %
24.08.2021 09:14 15,4 C 19,4 C 13,9 C 90 % 1027,8 hPa 0,0 l/m 2 min 0 min 340 W/m 9,7 km/h (2 Bft) 97,92 %
24.08.2021 09:16 15,5 C 18,9 C 13,9 C 89 % 1027,8 hPa 0,0 l/m 2 min 0 min 344 W/m 16,1 km/h (3 Bft) 97,87 %
24.08.2021 09:18 15,5 C 19,4 C 13,9 C 89 % 1027,8 hPa 0,0 l/m 2 min 0 min 349 W/m 16,1 km/h (3 Bft) 93,62 %
24.08.2021 09:20 15,6 C 19,4 C 13,9 C 89 % 1027,7 hPa 0,0 l/m 2 min 0 min 353 W/m 16,1 km/h (3 Bft) 95,65 %
24.08.2021 09:22 15,8 C 19,4 C 14,5 C 88 % 1027,7 hPa 0,0 l/m 2 min 0 min 359 W/m 9,7 km/h (2 Bft) 97,87 %
24.08.2021 09:24 15,9 C 20,0 C 14,5 C 87 % 1027,7 hPa 0,0 l/m 2 min 0 min 367 W/m 6,4 km/h (2 Bft) 97,14 %
24.08.2021 09:26 16,0 C 20,0 C 14,5 C 87 % 1027,7 hPa 0,0 l/m 2 min 0 min 375 W/m 9,7 km/h (2 Bft) 91,49 %
24.08.2021 09:28 16,1 C 20,0 C 15,0 C 87 % 1027,7 hPa 0,0 l/m 2 min 0 min 382 W/m 9,7 km/h (2 Bft) 100,00 %
24.08.2021 09:30 16,2 C 19,4 C 15,0 C 86 % 1027,7 hPa 0,0 l/m 2 min 0 min 389 W/m 12,9 km/h (3 Bft) 100,00 %
24.08.2021 09:32 16,3 C 20,0 C 15,0 C 86 % 1027,7 hPa 0,0 l/m 2 min 0 min 394 W/m 9,7 km/h (2 Bft) 100,00 %
24.08.2021 09:34 16,4 C 20,0 C 15,0 C 85 % 1027,8 hPa 0,0 l/m 2 min 0 min 399 W/m 6,4 km/h (2 Bft) 100,00 %
24.08.2021 09:36 16,5 C 19,4 C 15,0 C 85 % 1027,8 hPa 0,0 l/m 2 min 0 min 408 W/m 6,4 km/h (2 Bft) 100,00 %
24.08.2021 09:38 16,5 C 18,9 C 15,0 C 85 % 1027,8 hPa 0,0 l/m 2 min 0 min 411 W/m 12,9 km/h (3 Bft) 100,00 %
24.08.2021 09:40 16,6 C 18,9 C 15,0 C 84 % 1027,8 hPa 0,0 l/m 2 min 0 min 419 W/m 9,7 km/h (2 Bft) 100,00 %
24.08.2021 09:42 16,7 C 18,3 C 15,0 C 84 % 1027,8 hPa 0,0 l/m 2 min 0 min 424 W/m 9,7 km/h (2 Bft) 100,00 %
24.08.2021 09:44 16,8 C 18,3 C 15,0 C 84 % 1027,8 hPa 0,0 l/m 2 min 0 min 429 W/m 6,4 km/h (2 Bft) 100,00 %
24.08.2021 09:46 16,9 C 18,3 C 15,0 C 84 % 1027,9 hPa 0,0 l/m 2 min 0 min 433 W/m 6,4 km/h (2 Bft) 100,00 %
24.08.2021 09:48 16,9 C 18,3 C 15,0 C 83 % 1027,9 hPa 0,0 l/m 2 min 0 min 439 W/m 16,1 km/h (3 Bft) 100,00 %
24.08.2021 09:50 17,0 C 17,8 C 15,0 C 83 % 1027,9 hPa 0,0 l/m 2 min 0 min 440 W/m 3,2 km/h (1 Bft) 100,00 %
24.08.2021 09:52 17,0 C 17,8 C 15,0 C 83 % 1027,9 hPa 0,0 l/m 2 min 0 min 348 W/m 12,9 km/h (3 Bft) 100,00 %
24.08.2021 09:54 17,1 C 17,8 C 15,0 C 82 % 1027,9 hPa 0,0 l/m 2 min 0 min 311 W/m 12,9 km/h (3 Bft) 97,83 %
24.08.2021 09:56 17,1 C 17,8 C 15,0 C 82 % 1027,9 hPa 0,0 l/m 2 min 0 min 316 W/m 12,9 km/h (3 Bft) 100,00 %
24.08.2021 09:58 17,1 C 17,8 C 15,0 C 82 % 1027,9 hPa 0,0 l/m 2 min 0 min 305 W/m 12,9 km/h (3 Bft) 100,00 %
24.08.2021 10:00 17,2 C 17,8 C 15,0 C 82 % 1028,0 hPa 0,0 l/m 2 min 0 min 270 W/m 16,1 km/h (3 Bft) 100,00 %
24.08.2021 10:02 17,3 C 17,8 C 15,0 C 82 % 1028,0 hPa 0,0 l/m 0 min 0 min 217 W/m 9,7 km/h (2 Bft) 95,74 %
24.08.2021 10:04 17,3 C 17,8 C 15,0 C 82 % 1027,9 hPa 0,0 l/m 0 min 0 min 103 W/m 6,4 km/h (2 Bft) 95,74 %
24.08.2021 10:06 17,4 C 17,8 C 15,0 C 82 % 1028,0 hPa 0,0 l/m 0 min 0 min 154 W/m 9,7 km/h (2 Bft) 97,96 %
24.08.2021 10:08 17,5 C 17,8 C 15,6 C 81 % 1027,9 hPa 0,0 l/m 0 min 0 min 172 W/m 6,4 km/h (2 Bft) 97,87 %
24.08.2021 10:10 17,5 C 18,3 C 15,6 C 81 % 1028,0 hPa 0,0 l/m 0 min 0 min 131 W/m 6,4 km/h (2 Bft) 93,75 %
24.08.2021 10:12 17,6 C 18,3 C 15,6 C 81 % 1028,0 hPa 0,0 l/m 0 min 0 min 123 W/m 9,7 km/h (2 Bft) 100,00 %
24.08.2021 10:14 17,6 C 18,9 C 15,6 C 81 % 1028,0 hPa 0,0 l/m 0 min 0 min 147 W/m 9,7 km/h (2 Bft) 94,55 %
24.08.2021 10:16 17,8 C 19,4 C 15,6 C 80 % 1028,0 hPa 0,0 l/m 0 min 0 min 215 W/m 9,7 km/h (2 Bft) 97,87 %
24.08.2021 10:18 17,8 C 19,4 C 15,6 C 80 % 1028,1 hPa 0,0 l/m 2 min 0 min 292 W/m 12,9 km/h (3 Bft) 97,96 %
24.08.2021 10:20 17,9 C 19,4 C 15,6 C 79 % 1028,1 hPa 0,0 l/m 0 min 0 min 146 W/m 12,9 km/h (3 Bft) 95,74 %
24.08.2021 10:22 17,9 C 19,4 C 15,6 C 78 % 1028,1 hPa 0,0 l/m 0 min 0 min 92 W/m 9,7 km/h (2 Bft) 95,74 %
24.08.2021 10:24 18,0 C 19,4 C 15,6 C 78 % 1028,0 hPa 0,0 l/m 0 min 0 min 106 W/m 12,9 km/h (3 Bft) 97,87 %
24.08.2021 10:26 18,1 C 19,4 C 15,6 C 78 % 1028,0 hPa 0,0 l/m 0 min 0 min 174 W/m 9,7 km/h (2 Bft) 95,83 %
24.08.2021 10:28 18,1 C 20,0 C 16,1 C 78 % 1028,0 hPa 0,0 l/m 0 min 0 min 258 W/m 6,4 km/h (2 Bft) 93,62 %
24.08.2021 10:30 18,2 C 20,0 C 16,1 C 78 % 1028,0 hPa 0,0 l/m 0 min 0 min 207 W/m 6,4 km/h (2 Bft) 95,65 %
24.08.2021 10:32 18,3 C 20,0 C 16,1 C 78 % 1028,0 hPa 0,0 l/m 0 min 0 min 160 W/m 6,4 km/h (2 Bft) 94,44 %
24.08.2021 10:34 18,3 C 20,0 C 16,1 C 77 % 1027,9 hPa 0,0 l/m 2 min 0 min 353 W/m 12,9 km/h (3 Bft) 93,48 %
24.08.2021 10:36 18,4 C 20,0 C 16,7 C 77 % 1028,0 hPa 0,0 l/m 2 min 0 min 566 W/m 9,7 km/h (2 Bft) 95,74 %
24.08.2021 10:38 18,4 C 20,0 C 16,7 C 76 % 1028,0 hPa 0,0 l/m 2 min 0 min 579 W/m 12,9 km/h (3 Bft) 95,74 %
24.08.2021 10:40 18,5 C 20,6 C 16,7 C 76 % 1028,0 hPa 0,0 l/m 2 min 0 min 583 W/m 9,7 km/h (2 Bft) 93,62 %
24.08.2021 10:42 18,5 C 20,6 C 16,7 C 76 % 1028,0 hPa 0,0 l/m 2 min 0 min 591 W/m 9,7 km/h (2 Bft) 97,87 %
24.08.2021 10:44 18,6 C 20,6 C 16,7 C 75 % 1028,0 hPa 0,0 l/m 2 min 0 min 597 W/m 12,9 km/h (3 Bft) 95,74 %
24.08.2021 10:46 18,6 C 20,6 C 16,7 C 74 % 1028,0 hPa 0,0 l/m 2 min 0 min 554 W/m 9,7 km/h (2 Bft) 96,30 %
24.08.2021 10:48 18,7 C 20,0 C 16,7 C 73 % 1028,0 hPa 0,0 l/m 0 min 0 min 121 W/m 9,7 km/h (2 Bft) 97,87 %
24.08.2021 10:50 18,8 C 20,0 C 16,7 C 73 % 1028,0 hPa 0,0 l/m 0 min 0 min 183 W/m 9,7 km/h (2 Bft) 97,87 %
24.08.2021 10:52 18,8 C 20,0 C 16,7 C 72 % 1028,0 hPa 0,0 l/m 0 min 0 min 158 W/m 12,9 km/h (3 Bft) 91,49 %
24.08.2021 10:54 18,9 C 19,4 C 16,7 C 72 % 1027,9 hPa 0,0 l/m 0 min 0 min 144 W/m 12,9 km/h (3 Bft) 97,96 %
24.08.2021 10:56 18,9 C 19,4 C 16,7 C 72 % 1027,9 hPa 0,0 l/m 0 min 0 min 132 W/m 12,9 km/h (3 Bft) 97,87 %
24.08.2021 10:58 18,9 C 19,4 C 16,7 C 71 % 1027,9 hPa 0,0 l/m 0 min 0 min 137 W/m 16,1 km/h (3 Bft) 95,74 %
24.08.2021 11:00 19,0 C 20,0 C 16,7 C 70 % 1027,9 hPa 0,0 l/m 0 min 0 min 134 W/m 9,7 km/h (2 Bft) 95,83 %
24.08.2021 11:02 19,0 C 20,0 C 16,7 C 69 % 1027,9 hPa 0,0 l/m 2 min 0 min 541 W/m 12,9 km/h (3 Bft) 97,87 %
24.08.2021 11:04 19,0 C 19,4 C 16,1 C 68 % 1027,8 hPa 0,0 l/m 2 min 0 min 635 W/m 16,1 km/h (3 Bft) 97,96 %
24.08.2021 11:06 19,0 C 20,0 C 16,1 C 68 % 1027,9 hPa 0,0 l/m 2 min 0 min 631 W/m 12,9 km/h (3 Bft) 95,65 %
24.08.2021 11:08 19,1 C 20,0 C 16,7 C 68 % 1027,9 hPa 0,0 l/m 2 min 0 min 642 W/m 12,9 km/h (3 Bft) 95,74 %
24.08.2021 11:10 19,1 C 20,0 C 16,7 C 68 % 1027,9 hPa 0,0 l/m 2 min 0 min 646 W/m 12,9 km/h (3 Bft) 94,44 %
24.08.2021 11:12 19,2 C 20,0 C 16,7 C 67 % 1027,9 hPa 0,0 l/m 2 min 0 min 650 W/m 9,7 km/h (2 Bft) 93,62 %
24.08.2021 11:14 19,2 C 20,0 C 16,7 C 66 % 1027,8 hPa 0,0 l/m 2 min 0 min 661 W/m 16,1 km/h (3 Bft) 93,62 %
24.08.2021 11:16 19,3 C 20,0 C 16,7 C 65 % 1027,9 hPa 0,0 l/m 2 min 0 min 667 W/m 16,1 km/h (3 Bft) 97,87 %
24.08.2021 11:18 19,3 C 20,0 C 16,7 C 65 % 1027,8 hPa 0,0 l/m 2 min 0 min 668 W/m 16,1 km/h (3 Bft) 95,65 %
24.08.2021 11:20 19,4 C 20,0 C 16,7 C 64 % 1027,8 hPa 0,0 l/m 2 min 0 min 673 W/m 16,1 km/h (3 Bft) 95,74 %
24.08.2021 11:22 19,5 C 20,0 C 17,3 C 65 % 1027,8 hPa 0,0 l/m 2 min 0 min 676 W/m 16,1 km/h (3 Bft) 95,74 %
24.08.2021 11:24 19,5 C 20,6 C 17,3 C 64 % 1027,8 hPa 0,0 l/m 2 min 0 min 680 W/m 22,5 km/h (4 Bft) 95,74 %
24.08.2021 11:26 19,6 C 20,6 C 17,3 C 64 % 1027,8 hPa 0,0 l/m 2 min 0 min 686 W/m 16,1 km/h (3 Bft) 91,49 %
24.08.2021 11:28 19,7 C 21,1 C 17,3 C 63 % 1027,8 hPa 0,0 l/m 2 min 0 min 686 W/m 12,9 km/h (3 Bft) 94,44 %
24.08.2021 11:30 19,8 C 21,1 C 17,3 C 64 % 1027,8 hPa 0,0 l/m 2 min 0 min 694 W/m 9,7 km/h (2 Bft) 95,74 %
24.08.2021 11:32 19,9 C 21,7 C 17,3 C 63 % 1027,8 hPa 0,0 l/m 2 min 0 min 696 W/m 12,9 km/h (3 Bft) 95,74 %
24.08.2021 11:34 19,9 C 21,7 C 17,8 C 62 % 1027,7 hPa 0,0 l/m 2 min 0 min 701 W/m 12,9 km/h (3 Bft) 95,74 %
24.08.2021 11:36 20,0 C 22,2 C 17,8 C 63 % 1027,8 hPa 0,0 l/m 2 min 0 min 704 W/m 19,3 km/h (3 Bft) 96,00 %
24.08.2021 11:38 20,0 C 21,7 C 17,8 C 61 % 1027,8 hPa 0,0 l/m 2 min 0 min 709 W/m 19,3 km/h (3 Bft) 97,87 %
24.08.2021 11:40 20,1 C 21,7 C 17,8 C 60 % 1027,8 hPa 0,0 l/m 2 min 0 min 711 W/m 16,1 km/h (3 Bft) 100,00 %
24.08.2021 11:42 20,1 C 21,7 C 18,4 C 61 % 1027,7 hPa 0,0 l/m 2 min 0 min 716 W/m 16,1 km/h (3 Bft) 100,00 %
24.08.2021 11:44 20,1 C 21,1 C 18,9 C 60 % 1027,6 hPa 0,0 l/m 2 min 0 min 715 W/m 19,3 km/h (3 Bft) 97,22 %
24.08.2021 11:46 20,1 C 21,1 C 19,5 C 58 % 1027,7 hPa 0,0 l/m 2 min 0 min 720 W/m 22,5 km/h (4 Bft) 100,00 %
24.08.2021 11:48 20,1 C 20,6 C 20,0 C 58 % 1027,7 hPa 0,0 l/m 2 min 0 min 725 W/m 19,3 km/h (3 Bft) 97,87 %
24.08.2021 11:50 20,2 C 21,1 C 20,0 C 58 % 1027,6 hPa 0,0 l/m 2 min 0 min 723 W/m 16,1 km/h (3 Bft) 100,00 %
24.08.2021 11:52 20,2 C 21,7 C 20,0 C 59 % 1027,6 hPa 0,0 l/m 2 min 0 min 727 W/m 12,9 km/h (3 Bft) 97,87 %
24.08.2021 11:54 20,3 C 21,7 C 20,6 C 59 % 1027,6 hPa 0,0 l/m 2 min 0 min 732 W/m 16,1 km/h (3 Bft) 98,15 %
24.08.2021 11:56 20,4 C 22,2 C 20,6 C 59 % 1027,7 hPa 0,0 l/m 2 min 0 min 734 W/m 16,1 km/h (3 Bft) 100,00 %
24.08.2021 11:58 20,5 C 22,2 C 21,1 C 58 % 1027,7 hPa 0,0 l/m 2 min 0 min 739 W/m 16,1 km/h (3 Bft) 100,00 %
24.08.2021 12:00 20,5 C 22,8 C 21,7 C 59 % 1027,7 hPa 0,0 l/m 2 min 0 min 743 W/m 12,9 km/h (3 Bft) 100,00 %
24.08.2021 12:02 20,6 C 22,8 C 22,3 C 58 % 1027,6 hPa 0,0 l/m 2 min 0 min 745 W/m 16,1 km/h (3 Bft) 97,87 %
24.08.2021 12:04 20,6 C 23,3 C 22,8 C 58 % 1027,6 hPa 0,0 l/m 2 min 0 min 750 W/m 12,9 km/h (3 Bft) 100,00 %
24.08.2021 12:08 20,8 C 23,3 C 22,3 C 57 % 1027,6 hPa 0,0 l/m 4 min 0 min 758 W/m 19,3 km/h (3 Bft) 100,00 %
24.08.2021 12:10 20,8 C 23,9 C 21,7 C 57 % 1027,6 hPa 0,0 l/m 2 min 0 min 762 W/m 19,3 km/h (3 Bft) 100,00 %
24.08.2021 12:12 20,9 C 23,9 C 21,7 C 57 % 1027,6 hPa 0,0 l/m 2 min 0 min 764 W/m 22,5 km/h (4 Bft) 98,18 %
24.08.2021 12:14 21,0 C 23,9 C 21,1 C 57 % 1027,6 hPa 0,0 l/m 2 min 0 min 762 W/m 12,9 km/h (3 Bft) 100,00 %
24.08.2021 12:16 21,0 C 23,9 C 20,6 C 57 % 1027,6 hPa 0,0 l/m 2 min 0 min 764 W/m 19,3 km/h (3 Bft) 100,00 %
24.08.2021 12:18 21,0 C 24,4 C 20,0 C 57 % 1027,6 hPa 0,0 l/m 2 min 0 min 766 W/m 12,9 km/h (3 Bft) 100,00 %
24.08.2021 12:20 21,1 C 24,4 C 20,0 C 57 % 1027,5 hPa 0,0 l/m 2 min 0 min 771 W/m 19,3 km/h (3 Bft) 100,00 %
24.08.2021 12:22 21,2 C 25,0 C 20,0 C 57 % 1027,6 hPa 0,0 l/m 2 min 0 min 773 W/m 16,1 km/h (3 Bft) 100,00 %
24.08.2021 12:24 21,3 C 24,4 C 20,0 C 56 % 1027,5 hPa 0,0 l/m 2 min 0 min 776 W/m 19,3 km/h (3 Bft) 100,00 %
24.08.2021 12:26 21,3 C 25,0 C 20,0 C 56 % 1027,5 hPa 0,0 l/m 2 min 0 min 783 W/m 16,1 km/h (3 Bft) 100,00 %
24.08.2021 12:28 21,3 C 25,0 C 20,6 C 57 % 1027,4 hPa 0,0 l/m 2 min 0 min 784 W/m 16,1 km/h (3 Bft) 100,00 %
24.08.2021 12:30 21,4 C 25,6 C 20,0 C 58 % 1027,5 hPa 0,0 l/m 2 min 0 min 786 W/m 12,9 km/h (3 Bft) 100,00 %
24.08.2021 12:32 21,4 C 24,4 C 20,0 C 57 % 1027,5 hPa 0,0 l/m 2 min 0 min 774 W/m 32,2 km/h (5 Bft) 95,74 %
24.08.2021 12:34 21,4 C 23,9 C 19,5 C 56 % 1027,5 hPa 0,0 l/m 2 min 0 min 788 W/m 16,1 km/h (3 Bft) 98,18 %
24.08.2021 12:36 21,3 C 23,9 C 19,5 C 56 % 1027,5 hPa 0,0 l/m 2 min 0 min 789 W/m 38,6 km/h (5 Bft) 97,87 %
24.08.2021 12:38 21,2 C 23,3 C 19,5 C 56 % 1027,5 hPa 0,0 l/m 2 min 0 min 792 W/m 19,3 km/h (3 Bft) 97,83 %
24.08.2021 12:40 21,2 C 22,8 C 18,9 C 57 % 1027,5 hPa 0,0 l/m 2 min 0 min 792 W/m 22,5 km/h (4 Bft) 98,00 %
24.08.2021 12:42 21,3 C 23,3 C 18,4 C 56 % 1027,5 hPa 0,0 l/m 2 min 0 min 796 W/m 19,3 km/h (3 Bft) 97,87 %
24.08.2021 12:44 21,3 C 23,3 C 18,4 C 56 % 1027,5 hPa 0,0 l/m 2 min 0 min 803 W/m 16,1 km/h (3 Bft) 97,22 %
24.08.2021 12:46 21,3 C 23,3 C 18,4 C 57 % 1027,5 hPa 0,0 l/m 2 min 0 min 813 W/m 41,8 km/h (6 Bft) 97,87 %
24.08.2021 12:48 21,3 C 22,8 C 18,4 C 56 % 1027,5 hPa 0,0 l/m 2 min 0 min 793 W/m 22,5 km/h (4 Bft) 97,87 %
24.08.2021 12:50 21,3 C 22,8 C 18,4 C 57 % 1027,4 hPa 0,0 l/m 2 min 0 min 798 W/m 19,3 km/h (3 Bft) 96,30 %
24.08.2021 12:52 21,3 C 22,2 C 18,4 C 56 % 1027,3 hPa 0,0 l/m 2 min 0 min 773 W/m 29,0 km/h (5 Bft) 96,00 %
24.08.2021 12:54 21,3 C 22,2 C 17,8 C 56 % 1027,4 hPa 0,0 l/m 2 min 0 min 713 W/m 22,5 km/h (4 Bft) 97,87 %
24.08.2021 12:56 21,3 C 21,7 C 17,8 C 56 % 1027,4 hPa 0,0 l/m 2 min 0 min 767 W/m 19,3 km/h (3 Bft) 97,22 %
24.08.2021 12:58 21,3 C 22,2 C 18,4 C 57 % 1027,4 hPa 0,0 l/m 2 min 0 min 770 W/m 19,3 km/h (3 Bft) 97,92 %
24.08.2021 13:00 21,4 C 22,2 C 18,4 C 57 % 1027,3 hPa 0,0 l/m 2 min 0 min 811 W/m 19,3 km/h (3 Bft) 97,87 %
24.08.2021 13:02 21,4 C 21,7 C 17,8 C 57 % 1027,4 hPa 0,0 l/m 2 min 0 min 843 W/m 25,7 km/h (4 Bft) 93,62 %
24.08.2021 13:04 21,4 C 21,7 C 18,4 C 57 % 1027,4 hPa 0,0 l/m 2 min 0 min 854 W/m 19,3 km/h (3 Bft) 97,87 %
24.08.2021 13:06 21,5 C 21,7 C 18,4 C 58 % 1027,3 hPa 0,0 l/m 2 min 0 min 808 W/m 19,3 km/h (3 Bft) 91,49 %
24.08.2021 13:08 21,5 C 21,7 C 18,4 C 57 % 1027,3 hPa 0,0 l/m 2 min 0 min 769 W/m 19,3 km/h (3 Bft) 97,87 %
24.08.2021 13:10 21,5 C 21,7 C 18,4 C 57 % 1027,2 hPa 0,0 l/m 2 min 0 min 792 W/m 22,5 km/h (4 Bft) 95,92 %
24.08.2021 13:12 21,6 C 21,7 C 18,4 C 58 % 1027,3 hPa 0,0 l/m 2 min 0 min 786 W/m 32,2 km/h (5 Bft) 97,87 %
24.08.2021 13:14 21,6 C 21,7 C 18,4 C 56 % 1027,3 hPa 0,0 l/m 2 min 0 min 731 W/m 22,5 km/h (4 Bft) 95,65 %
24.08.2021 13:16 21,6 C 22,2 C 18,4 C 56 % 1027,3 hPa 0,0 l/m 2 min 0 min 767 W/m 19,3 km/h (3 Bft) 96,23 %
24.08.2021 13:18 21,5 C 21,7 C 18,4 C 55 % 1027,3 hPa 0,0 l/m 2 min 0 min 664 W/m 22,5 km/h (4 Bft) 97,87 %
24.08.2021 13:20 21,5 C 21,7 C 18,4 C 56 % 1027,3 hPa 0,0 l/m 2 min 0 min 674 W/m 16,1 km/h (3 Bft) 97,87 %
24.08.2021 13:22 21,5 C 22,2 C 18,4 C 57 % 1027,2 hPa 0,0 l/m 2 min 0 min 786 W/m 19,3 km/h (3 Bft) 97,87 %
24.08.2021 13:24 21,5 C 22,2 C 18,4 C 57 % 1027,2 hPa 0,0 l/m 2 min 0 min 803 W/m 38,6 km/h (5 Bft) 95,65 %
24.08.2021 13:26 21,6 C 22,2 C 18,4 C 57 % 1027,2 hPa 0,0 l/m 2 min 0 min 804 W/m 19,3 km/h (3 Bft) 97,87 %
24.08.2021 13:28 21,6 C 22,2 C 18,4 C 57 % 1027,2 hPa 0,0 l/m 2 min 0 min 766 W/m 19,3 km/h (3 Bft) 94,74 %
24.08.2021 13:30 21,6 C 22,8 C 18,4 C 57 % 1027,2 hPa 0,0 l/m 2 min 0 min 734 W/m 22,5 km/h (4 Bft) 95,74 %
24.08.2021 13:32 21,7 C 23,3 C 18,4 C 57 % 1027,2 hPa 0,0 l/m 2 min 0 min 736 W/m 12,9 km/h (3 Bft) 97,87 %
24.08.2021 13:34 21,8 C 23,9 C 18,4 C 58 % 1027,1 hPa 0,0 l/m 2 min 0 min 796 W/m 12,9 km/h (3 Bft) 97,87 %
24.08.2021 13:36 21,9 C 24,4 C 18,4 C 57 % 1027,1 hPa 0,0 l/m 2 min 0 min 790 W/m 22,5 km/h (4 Bft) 98,00 %
24.08.2021 13:38 22,0 C 25,0 C 18,9 C 57 % 1027,2 hPa 0,0 l/m 2 min 0 min 803 W/m 12,9 km/h (3 Bft) 97,83 %
24.08.2021 13:40 22,1 C 25,0 C 18,4 C 55 % 1027,2 hPa 0,0 l/m 2 min 0 min 823 W/m 22,5 km/h (4 Bft) 97,87 %
24.08.2021 13:42 22,1 C 24,4 C 18,4 C 54 % 1027,2 hPa 0,0 l/m 2 min 0 min 834 W/m 25,7 km/h (4 Bft) 97,87 %
24.08.2021 13:44 22,0 C 24,4 C 18,4 C 54 % 1027,1 hPa 0,0 l/m 2 min 0 min 838 W/m 22,5 km/h (4 Bft) 95,74 %
24.08.2021 13:46 22,0 C 24,4 C 18,4 C 54 % 1027,2 hPa 0,0 l/m 2 min 0 min 836 W/m 19,3 km/h (3 Bft) 100,00 %
24.08.2021 13:48 22,0 C 24,4 C 18,4 C 53 % 1027,2 hPa 0,0 l/m 2 min 0 min 821 W/m 19,3 km/h (3 Bft) 97,87 %
24.08.2021 13:50 22,1 C 25,0 C 18,4 C 54 % 1027,2 hPa 0,0 l/m 2 min 0 min 836 W/m 22,5 km/h (4 Bft) 100,00 %
24.08.2021 13:52 22,2 C 25,6 C 18,4 C 54 % 1027,2 hPa 0,0 l/m 2 min 0 min 831 W/m 12,9 km/h (3 Bft) 97,87 %
24.08.2021 13:54 22,3 C 25,6 C 18,9 C 53 % 1027,0 hPa 0,0 l/m 2 min 0 min 824 W/m 19,3 km/h (3 Bft) 100,00 %
24.08.2021 13:56 22,3 C 25,6 C 18,4 C 52 % 1027,1 hPa 0,0 l/m 2 min 0 min 835 W/m 22,5 km/h (4 Bft) 97,87 %
24.08.2021 13:58 22,4 C 26,1 C 18,9 C 52 % 1027,1 hPa 0,0 l/m 2 min 0 min 836 W/m 16,1 km/h (3 Bft) 95,74 %
24.08.2021 14:00 22,5 C 26,1 C 18,9 C 53 % 1027,1 hPa 0,0 l/m 2 min 0 min 835 W/m 22,5 km/h (4 Bft) 97,83 %
24.08.2021 14:02 22,5 C 26,7 C 18,9 C 53 % 1027,1 hPa 0,0 l/m 2 min 0 min 831 W/m 19,3 km/h (3 Bft) 100,00 %
24.08.2021 14:04 22,6 C 26,7 C 18,9 C 52 % 1027,1 hPa 0,0 l/m 2 min 0 min 834 W/m 25,7 km/h (4 Bft) 100,00 %
24.08.2021 14:06 22,6 C 26,7 C 18,9 C 51 % 1027,1 hPa 0,0 l/m 2 min 0 min 800 W/m 32,2 km/h (5 Bft) 97,87 %
24.08.2021 14:08 22,6 C 26,7 C 18,9 C 51 % 1027,1 hPa 0,0 l/m 2 min 0 min 829 W/m 16,1 km/h (3 Bft) 97,87 %
24.08.2021 14:10 22,6 C 27,2 C 18,9 C 51 % 1027,0 hPa 0,0 l/m 2 min 0 min 812 W/m 19,3 km/h (3 Bft) 100,00 %
24.08.2021 14:12 22,6 C 26,1 C 18,9 C 51 % 1027,0 hPa 0,0 l/m 2 min 0 min 802 W/m 25,7 km/h (4 Bft) 100,00 %
24.08.2021 14:14 22,7 C 26,7 C 18,9 C 52 % 1027,1 hPa 0,0 l/m 2 min 0 min 805 W/m 12,9 km/h (3 Bft) 95,45 %
24.08.2021 14:16 22,8 C 26,7 C 18,9 C 51 % 1027,1 hPa 0,0 l/m 2 min 0 min 782 W/m 19,3 km/h (3 Bft) 97,87 %
24.08.2021 14:18 22,7 C 26,7 C 18,9 C 51 % 1027,0 hPa 0,0 l/m 2 min 0 min 798 W/m 12,9 km/h (3 Bft) 97,87 %
24.08.2021 14:20 22,8 C 27,2 C 18,9 C 51 % 1027,0 hPa 0,0 l/m 2 min 0 min 828 W/m 16,1 km/h (3 Bft) 97,87 %
24.08.2021 14:22 22,8 C 27,2 C 18,9 C 51 % 1027,0 hPa 0,0 l/m 2 min 0 min 824 W/m 12,9 km/h (3 Bft) 98,00 %
24.08.2021 14:24 22,9 C 27,2 C 18,9 C 51 % 1026,9 hPa 0,0 l/m 2 min 0 min 825 W/m 12,9 km/h (3 Bft) 97,83 %
24.08.2021 14:26 22,8 C 26,7 C 18,9 C 50 % 1027,1 hPa 0,0 l/m 2 min 0 min 825 W/m 22,5 km/h (4 Bft) 97,87 %
24.08.2021 14:28 22,8 C 26,1 C 18,9 C 51 % 1027,0 hPa 0,0 l/m 2 min 0 min 806 W/m 16,1 km/h (3 Bft) 97,87 %
24.08.2021 14:30 22,7 C 26,1 C 18,4 C 51 % 1027,1 hPa 0,0 l/m 2 min 0 min 807 W/m 19,3 km/h (3 Bft) 97,87 %
24.08.2021 14:32 22,7 C 27,2 C 18,9 C 52 % 1027,0 hPa 0,0 l/m 2 min 0 min 818 W/m 12,9 km/h (3 Bft) 98,11 %
24.08.2021 14:34 22,7 C 26,7 C 18,9 C 50 % 1027,1 hPa 0,0 l/m 2 min 0 min 809 W/m 19,3 km/h (3 Bft) 97,83 %
24.08.2021 14:36 22,7 C 26,7 C 18,9 C 50 % 1027,0 hPa 0,0 l/m 2 min 0 min 801 W/m 12,9 km/h (3 Bft) 97,37 %
24.08.2021 14:38 22,7 C 27,2 C 18,9 C 52 % 1027,0 hPa 0,0 l/m 2 min 0 min 796 W/m 19,3 km/h (3 Bft) 96,00 %
24.08.2021 14:40 22,7 C 26,7 C 18,9 C 51 % 1026,9 hPa 0,0 l/m 2 min 0 min 797 W/m 19,3 km/h (3 Bft) 95,74 %
24.08.2021 14:42 22,7 C 26,7 C 18,9 C 52 % 1026,9 hPa 0,0 l/m 2 min 0 min 795 W/m 16,1 km/h (3 Bft) 97,87 %
24.08.2021 14:44 22,7 C 26,7 C 18,9 C 53 % 1026,9 hPa 0,0 l/m 2 min 0 min 797 W/m 19,3 km/h (3 Bft) 98,11 %
24.08.2021 14:46 22,8 C 26,7 C 18,9 C 52 % 1026,8 hPa 0,0 l/m 2 min 0 min 785 W/m 19,3 km/h (3 Bft) 97,83 %
24.08.2021 14:48 22,8 C 26,7 C 18,9 C 52 % 1026,8 hPa 0,0 l/m 2 min 0 min 748 W/m 22,5 km/h (4 Bft) 97,87 %
24.08.2021 14:50 22,7 C 26,7 C 18,9 C 52 % 1026,7 hPa 0,0 l/m 2 min 0 min 710 W/m 25,7 km/h (4 Bft) 97,37 %
24.08.2021 14:52 22,6 C 26,1 C 18,9 C 53 % 1026,8 hPa 0,0 l/m 2 min 0 min 746 W/m 12,9 km/h (3 Bft) 97,87 %
24.08.2021 14:54 22,6 C 26,1 C 18,9 C 52 % 1026,8 hPa 0,0 l/m 2 min 0 min 709 W/m 16,1 km/h (3 Bft) 98,00 %
24.08.2021 14:56 22,6 C 26,1 C 18,9 C 52 % 1026,8 hPa 0,0 l/m 2 min 0 min 699 W/m 19,3 km/h (3 Bft) 97,87 %
24.08.2021 14:58 22,6 C 26,1 C 18,9 C 52 % 1026,8 hPa 0,0 l/m 2 min 0 min 722 W/m 22,5 km/h (4 Bft) 97,87 %
24.08.2021 15:00 22,6 C 26,1 C 18,9 C 52 % 1026,7 hPa 0,0 l/m 2 min 0 min 528 W/m 12,9 km/h (3 Bft) 97,83 %
24.08.2021 15:02 22,6 C 26,1 C 18,9 C 51 % 1026,7 hPa 0,0 l/m 2 min 0 min 644 W/m 19,3 km/h (3 Bft) 100,00 %
24.08.2021 15:04 22,6 C 26,1 C 18,9 C 52 % 1026,8 hPa 0,0 l/m 2 min 0 min 665 W/m 12,9 km/h (3 Bft) 94,74 %
24.08.2021 15:06 22,6 C 26,7 C 19,5 C 52 % 1026,7 hPa 0,0 l/m 2 min 0 min 832 W/m 12,9 km/h (3 Bft) 93,62 %
24.08.2021 15:08 22,8 C 26,7 C 19,5 C 53 % 1026,7 hPa 0,0 l/m 2 min 0 min 749 W/m 12,9 km/h (3 Bft) 93,62 %
24.08.2021 15:10 22,8 C 26,7 C 19,5 C 54 % 1026,8 hPa 0,0 l/m 2 min 0 min 644 W/m 12,9 km/h (3 Bft) 95,74 %
24.08.2021 15:12 22,8 C 26,7 C 19,5 C 53 % 1026,8 hPa 0,0 l/m 2 min 0 min 703 W/m 16,1 km/h (3 Bft) 95,65 %
24.08.2021 15:14 22,8 C 26,7 C 19,5 C 52 % 1026,8 hPa 0,0 l/m 2 min 0 min 703 W/m 12,9 km/h (3 Bft) 96,00 %
24.08.2021 15:16 22,8 C 26,1 C 19,5 C 53 % 1026,8 hPa 0,0 l/m 2 min 0 min 602 W/m 19,3 km/h (3 Bft) 95,74 %
24.08.2021 15:18 22,8 C 26,1 C 19,5 C 53 % 1026,8 hPa 0,0 l/m 2 min 0 min 572 W/m 12,9 km/h (3 Bft) 95,74 %
24.08.2021 15:20 22,7 C 25,6 C 18,9 C 52 % 1026,8 hPa 0,0 l/m 2 min 0 min 630 W/m 16,1 km/h (3 Bft) 95,74 %
24.08.2021 15:22 22,6 C 25,6 C 18,9 C 52 % 1026,8 hPa 0,0 l/m 2 min 0 min 532 W/m 12,9 km/h (3 Bft) 93,48 %
24.08.2021 15:24 22,6 C 25,6 C 18,9 C 53 % 1026,8 hPa 0,0 l/m 2 min 0 min 547 W/m 12,9 km/h (3 Bft) 89,36 %
24.08.2021 15:26 22,6 C 25,6 C 18,9 C 53 % 1026,8 hPa 0,0 l/m 2 min 0 min 715 W/m 19,3 km/h (3 Bft) 93,62 %
24.08.2021 15:28 22,6 C 25,6 C 18,9 C 53 % 1026,8 hPa 0,0 l/m 2 min 0 min 752 W/m 12,9 km/h (3 Bft) 95,74 %
24.08.2021 15:30 22,5 C 25,0 C 18,9 C 53 % 1026,8 hPa 0,0 l/m 2 min 0 min 533 W/m 16,1 km/h (3 Bft) 93,62 %
24.08.2021 15:32 22,5 C 25,0 C 18,9 C 53 % 1026,8 hPa 0,0 l/m 2 min 0 min 428 W/m 12,9 km/h (3 Bft) 94,23 %
24.08.2021 15:34 22,4 C 25,0 C 18,9 C 54 % 1026,8 hPa 0,0 l/m 2 min 0 min 408 W/m 19,3 km/h (3 Bft) 92,31 %
24.08.2021 15:36 22,3 C 24,4 C 18,9 C 54 % 1026,8 hPa 0,0 l/m 2 min 0 min 445 W/m 16,1 km/h (3 Bft) 93,48 %
24.08.2021 15:38 22,3 C 24,4 C 18,9 C 55 % 1026,7 hPa 0,0 l/m 2 min 0 min 399 W/m 16,1 km/h (3 Bft) 96,00 %
24.08.2021 15:40 22,1 C 23,9 C 18,9 C 55 % 1026,7 hPa 0,0 l/m 2 min 0 min 332 W/m 12,9 km/h (3 Bft) 95,74 %
24.08.2021 15:42 22,0 C 23,9 C 18,9 C 55 % 1026,7 hPa 0,0 l/m 2 min 0 min 409 W/m 9,7 km/h (2 Bft) 93,62 %
24.08.2021 15:44 22,0 C 25,0 C 18,9 C 56 % 1026,7 hPa 0,0 l/m 2 min 0 min 650 W/m 16,1 km/h (3 Bft) 95,45 %
24.08.2021 15:46 22,1 C 25,0 C 18,9 C 55 % 1026,7 hPa 0,0 l/m 2 min 0 min 653 W/m 16,1 km/h (3 Bft) 97,83 %
24.08.2021 15:48 22,1 C 25,0 C 18,9 C 55 % 1026,7 hPa 0,0 l/m 2 min 0 min 593 W/m 12,9 km/h (3 Bft) 97,87 %
24.08.2021 15:50 22,1 C 25,0 C 18,9 C 54 % 1026,7 hPa 0,0 l/m 2 min 0 min 601 W/m 16,1 km/h (3 Bft) 98,00 %
24.08.2021 15:52 22,2 C 25,6 C 18,9 C 55 % 1026,7 hPa 0,0 l/m 2 min 0 min 700 W/m 16,1 km/h (3 Bft) 100,00 %
24.08.2021 15:54 22,3 C 25,6 C 18,9 C 54 % 1026,6 hPa 0,0 l/m 2 min 0 min 669 W/m 16,1 km/h (3 Bft) 100,00 %
24.08.2021 15:56 22,2 C 25,6 C 18,9 C 55 % 1026,7 hPa 0,0 l/m 2 min 0 min 575 W/m 22,5 km/h (4 Bft) 100,00 %
24.08.2021 15:58 22,3 C 26,7 C 18,9 C 56 % 1026,7 hPa 0,0 l/m 2 min 0 min 603 W/m 12,9 km/h (3 Bft) 100,00 %
24.08.2021 16:00 22,3 C 27,2 C 18,9 C 56 % 1026,6 hPa 0,0 l/m 2 min 0 min 683 W/m 9,7 km/h (2 Bft) 100,00 %
24.08.2021 16:02 22,4 C 27,8 C 18,9 C 55 % 1026,6 hPa 0,0 l/m 2 min 0 min 755 W/m 19,3 km/h (3 Bft) 100,00 %
24.08.2021 16:04 22,4 C 28,3 C 19,5 C 55 % 1026,6 hPa 0,0 l/m 2 min 0 min 755 W/m 16,1 km/h (3 Bft) 100,00 %
24.08.2021 16:06 22,5 C 28,3 C 18,9 C 55 % 1026,5 hPa 0,0 l/m 2 min 0 min 730 W/m 12,9 km/h (3 Bft) 100,00 %
24.08.2021 16:08 22,5 C 27,8 C 18,9 C 54 % 1026,6 hPa 0,0 l/m 2 min 0 min 663 W/m 29,0 km/h (5 Bft) 100,00 %
24.08.2021 16:10 22,5 C 27,8 C 18,9 C 55 % 1026,7 hPa 0,0 l/m 2 min 0 min 623 W/m 16,1 km/h (3 Bft) 100,00 %
24.08.2021 16:12 22,5 C 28,3 C 18,9 C 55 % 1026,6 hPa 0,0 l/m 2 min 0 min 639 W/m 22,5 km/h (4 Bft) 100,00 %
24.08.2021 16:14 22,5 C 28,9 C 19,5 C 56 % 1026,7 hPa 0,0 l/m 2 min 0 min 651 W/m 12,9 km/h (3 Bft) 100,00 %
24.08.2021 16:16 22,5 C 29,4 C 19,5 C 55 % 1026,7 hPa 0,0 l/m 2 min 0 min 614 W/m 9,7 km/h (2 Bft) 100,00 %
24.08.2021 16:18 22,6 C 28,9 C 19,5 C 55 % 1026,7 hPa 0,0 l/m 2 min 0 min 617 W/m 19,3 km/h (3 Bft) 100,00 %
24.08.2021 16:20 22,6 C 28,9 C 19,5 C 55 % 1026,7 hPa 0,0 l/m 2 min 0 min 642 W/m 16,1 km/h (3 Bft) 100,00 %
24.08.2021 16:22 22,6 C 28,9 C 19,5 C 55 % 1026,7 hPa 0,0 l/m 2 min 0 min 652 W/m 9,7 km/h (2 Bft) 98,00 %
24.08.2021 16:24 22,8 C 29,4 C 19,5 C 56 % 1026,7 hPa 0,0 l/m 2 min 0 min 649 W/m 9,7 km/h (2 Bft) 100,00 %
24.08.2021 16:26 22,9 C 29,4 C 19,5 C 55 % 1026,7 hPa 0,0 l/m 2 min 0 min 636 W/m 16,1 km/h (3 Bft) 100,00 %
24.08.2021 16:28 22,9 C 30,0 C 20,0 C 55 % 1026,7 hPa 0,0 l/m 2 min 0 min 626 W/m 12,9 km/h (3 Bft) 100,00 %
24.08.2021 16:30 22,9 C 30,0 C 19,5 C 54 % 1026,7 hPa 0,0 l/m 2 min 0 min 623 W/m 16,1 km/h (3 Bft) 100,00 %
24.08.2021 16:32 22,9 C 30,6 C 19,5 C 54 % 1026,7 hPa 0,0 l/m 2 min 0 min 625 W/m 9,7 km/h (2 Bft) 100,00 %
24.08.2021 16:34 22,9 C 30,0 C 20,0 C 55 % 1026,7 hPa 0,0 l/m 2 min 0 min 625 W/m 12,9 km/h (3 Bft) 100,00 %
24.08.2021 16:36 22,9 C 30,0 C 19,5 C 54 % 1026,7 hPa 0,0 l/m 2 min 0 min 624 W/m 12,9 km/h (3 Bft) 100,00 %
24.08.2021 16:38 22,9 C 30,0 C 20,0 C 55 % 1026,7 hPa 0,0 l/m 2 min 0 min 616 W/m 12,9 km/h (3 Bft) 97,87 %
24.08.2021 16:40 22,8 C 30,0 C 20,0 C 54 % 1026,7 hPa 0,0 l/m 2 min 0 min 610 W/m 12,9 km/h (3 Bft) 100,00 %
24.08.2021 16:42 22,8 C 30,0 C 20,0 C 55 % 1026,7 hPa 0,0 l/m 2 min 0 min 609 W/m 19,3 km/h (3 Bft) 100,00 %
24.08.2021 16:44 22,8 C 29,4 C 20,0 C 55 % 1026,6 hPa 0,0 l/m 2 min 0 min 607 W/m 16,1 km/h (3 Bft) 100,00 %
24.08.2021 16:46 22,8 C 29,4 C 20,0 C 54 % 1026,7 hPa 0,0 l/m 2 min 0 min 604 W/m 19,3 km/h (3 Bft) 100,00 %
24.08.2021 16:48 22,9 C 29,4 C 20,0 C 54 % 1026,7 hPa 0,0 l/m 2 min 0 min 595 W/m 16,1 km/h (3 Bft) 100,00 %
24.08.2021 16:50 22,9 C 30,0 C 20,0 C 54 % 1026,7 hPa 0,0 l/m 2 min 0 min 563 W/m 9,7 km/h (2 Bft) 100,00 %
24.08.2021 16:52 22,9 C 30,0 C 20,0 C 54 % 1026,7 hPa 0,0 l/m 2 min 0 min 559 W/m 9,7 km/h (2 Bft) 100,00 %
24.08.2021 16:54 22,9 C 29,4 C 20,0 C 55 % 1026,7 hPa 0,0 l/m 2 min 0 min 541 W/m 19,3 km/h (3 Bft) 100,00 %
24.08.2021 16:56 22,8 C 28,9 C 20,0 C 53 % 1026,7 hPa 0,0 l/m 2 min 0 min 535 W/m 19,3 km/h (3 Bft) 100,00 %
24.08.2021 16:58 22,8 C 28,9 C 20,0 C 54 % 1026,7 hPa 0,0 l/m 2 min 0 min 485 W/m 12,9 km/h (3 Bft) 100,00 %
24.08.2021 17:00 22,7 C 28,3 C 20,0 C 54 % 1026,6 hPa 0,0 l/m 2 min 0 min 413 W/m 16,1 km/h (3 Bft) 100,00 %
24.08.2021 17:02 22,6 C 28,3 C 20,0 C 55 % 1026,7 hPa 0,0 l/m 2 min 0 min 440 W/m 16,1 km/h (3 Bft) 100,00 %
24.08.2021 17:04 22,6 C 28,9 C 20,0 C 55 % 1026,7 hPa 0,0 l/m 2 min 0 min 543 W/m 9,7 km/h (2 Bft) 97,92 %
24.08.2021 17:06 22,6 C 28,9 C 20,0 C 55 % 1026,6 hPa 0,0 l/m 2 min 0 min 534 W/m 9,7 km/h (2 Bft) 97,87 %
24.08.2021 17:08 22,6 C 29,4 C 20,6 C 55 % 1026,6 hPa 0,0 l/m 2 min 0 min 527 W/m 12,9 km/h (3 Bft) 100,00 %
24.08.2021 17:10 22,7 C 29,4 C 20,0 C 55 % 1026,6 hPa 0,0 l/m 2 min 0 min 529 W/m 16,1 km/h (3 Bft) 97,87 %
24.08.2021 17:12 22,8 C 29,4 C 20,0 C 55 % 1026,6 hPa 0,0 l/m 2 min 0 min 524 W/m 12,9 km/h (3 Bft) 100,00 %
24.08.2021 17:14 22,9 C 29,4 C 20,6 C 55 % 1026,6 hPa 0,0 l/m 2 min 0 min 504 W/m 19,3 km/h (3 Bft) 100,00 %
24.08.2021 17:16 22,9 C 28,9 C 20,0 C 55 % 1026,6 hPa 0,0 l/m 2 min 0 min 504 W/m 19,3 km/h (3 Bft) 97,87 %
24.08.2021 17:18 22,9 C 29,4 C 20,6 C 55 % 1026,6 hPa 0,0 l/m 2 min 0 min 497 W/m 16,1 km/h (3 Bft) 93,48 %
24.08.2021 17:20 22,9 C 28,9 C 20,6 C 55 % 1026,7 hPa 0,0 l/m 2 min 0 min 484 W/m 16,1 km/h (3 Bft) 91,49 %
24.08.2021 17:22 22,9 C 28,9 C 20,0 C 54 % 1026,6 hPa 0,0 l/m 2 min 0 min 455 W/m 16,1 km/h (3 Bft) 97,87 %
24.08.2021 17:24 22,9 C 28,3 C 20,6 C 55 % 1026,6 hPa 0,0 l/m 2 min 0 min 449 W/m 22,5 km/h (4 Bft) 100,00 %
24.08.2021 17:26 22,9 C 28,9 C 20,6 C 55 % 1026,7 hPa 0,0 l/m 2 min 0 min 474 W/m 16,1 km/h (3 Bft) 95,74 %
24.08.2021 17:28 22,8 C 29,4 C 20,6 C 55 % 1026,6 hPa 0,0 l/m 2 min 0 min 470 W/m 12,9 km/h (3 Bft) 95,74 %
24.08.2021 17:30 22,7 C 28,9 C 20,6 C 55 % 1026,6 hPa 0,0 l/m 2 min 0 min 470 W/m 12,9 km/h (3 Bft) 97,87 %
24.08.2021 17:32 22,6 C 29,4 C 20,6 C 55 % 1026,5 hPa 0,0 l/m 2 min 0 min 469 W/m 12,9 km/h (3 Bft) 95,65 %
24.08.2021 17:34 22,6 C 29,4 C 20,6 C 56 % 1026,5 hPa 0,0 l/m 2 min 0 min 450 W/m 12,9 km/h (3 Bft) 93,75 %
24.08.2021 17:36 22,6 C 28,9 C 20,6 C 56 % 1026,5 hPa 0,0 l/m 2 min 0 min 423 W/m 19,3 km/h (3 Bft) 93,62 %
24.08.2021 17:38 22,6 C 28,9 C 20,0 C 55 % 1026,5 hPa 0,0 l/m 2 min 0 min 446 W/m 12,9 km/h (3 Bft) 93,62 %
24.08.2021 17:40 22,6 C 28,3 C 20,6 C 56 % 1026,5 hPa 0,0 l/m 2 min 0 min 438 W/m 16,1 km/h (3 Bft) 93,62 %
24.08.2021 17:42 22,6 C 28,3 C 20,6 C 55 % 1026,5 hPa 0,0 l/m 2 min 0 min 433 W/m 9,7 km/h (2 Bft) 93,48 %
24.08.2021 17:44 22,6 C 28,3 C 20,6 C 55 % 1026,5 hPa 0,0 l/m 2 min 0 min 413 W/m 12,9 km/h (3 Bft) 90,91 %
24.08.2021 17:46 22,6 C 28,3 C 20,6 C 55 % 1026,5 hPa 0,0 l/m 2 min 0 min 400 W/m 19,3 km/h (3 Bft) 93,62 %
24.08.2021 17:48 22,6 C 28,3 C 20,6 C 54 % 1026,5 hPa 0,0 l/m 2 min 0 min 409 W/m 16,1 km/h (3 Bft) 93,62 %
24.08.2021 17:50 22,5 C 28,3 C 20,6 C 54 % 1026,5 hPa 0,0 l/m 2 min 0 min 408 W/m 16,1 km/h (3 Bft) 92,11 %
24.08.2021 17:52 22,5 C 27,2 C 20,0 C 54 % 1026,5 hPa 0,0 l/m 2 min 0 min 400 W/m 16,1 km/h (3 Bft) 91,49 %
24.08.2021 17:54 22,5 C 27,8 C 20,0 C 54 % 1026,5 hPa 0,0 l/m 2 min 0 min 381 W/m 19,3 km/h (3 Bft) 93,62 %
24.08.2021 17:56 22,5 C 27,8 C 20,6 C 55 % 1026,5 hPa 0,0 l/m 2 min 0 min 386 W/m 16,1 km/h (3 Bft) 93,62 %
24.08.2021 17:58 22,5 C 27,8 C 20,0 C 56 % 1026,5 hPa 0,0 l/m 2 min 0 min 388 W/m 9,7 km/h (2 Bft) 95,74 %
24.08.2021 18:00 22,5 C 28,3 C 20,6 C 55 % 1026,4 hPa 0,0 l/m 2 min 0 min 383 W/m 12,9 km/h (3 Bft) 91,49 %
24.08.2021 18:02 22,6 C 28,9 C 20,6 C 55 % 1026,4 hPa 0,0 l/m 2 min 0 min 377 W/m 12,9 km/h (3 Bft) 91,49 %
24.08.2021 18:04 22,6 C 28,3 C 20,6 C 55 % 1026,4 hPa 0,0 l/m 2 min 0 min 373 W/m 12,9 km/h (3 Bft) 98,00 %
24.08.2021 18:08 22,6 C 28,3 C 20,6 C 55 % 1026,4 hPa 0,0 l/m 4 min 0 min 363 W/m 12,9 km/h (3 Bft) 95,45 %
24.08.2021 18:10 22,6 C 28,3 C 20,6 C 55 % 1026,4 hPa 0,0 l/m 2 min 0 min 351 W/m 12,9 km/h (3 Bft) 95,74 %
24.08.2021 18:12 22,6 C 28,3 C 20,6 C 55 % 1026,3 hPa 0,0 l/m 2 min 0 min 344 W/m 9,7 km/h (2 Bft) 95,74 %
24.08.2021 18:14 22,5 C 28,3 C 20,6 C 56 % 1026,4 hPa 0,0 l/m 2 min 0 min 339 W/m 12,9 km/h (3 Bft) 95,74 %
24.08.2021 18:16 22,5 C 28,9 C 20,6 C 56 % 1026,4 hPa 0,0 l/m 2 min 0 min 333 W/m 12,9 km/h (3 Bft) 95,74 %
24.08.2021 18:18 22,5 C 28,3 C 20,6 C 55 % 1026,4 hPa 0,0 l/m 2 min 0 min 324 W/m 12,9 km/h (3 Bft) 95,65 %
24.08.2021 18:20 22,5 C 27,2 C 20,0 C 55 % 1026,3 hPa 0,0 l/m 2 min 0 min 319 W/m 19,3 km/h (3 Bft) 95,74 %
24.08.2021 18:22 22,5 C 27,2 C 20,0 C 56 % 1026,3 hPa 0,0 l/m 2 min 0 min 314 W/m 16,1 km/h (3 Bft) 97,87 %
24.08.2021 18:24 22,5 C 26,7 C 19,5 C 55 % 1026,2 hPa 0,0 l/m 2 min 0 min 305 W/m 16,1 km/h (3 Bft) 95,74 %
24.08.2021 18:26 22,4 C 26,7 C 20,0 C 55 % 1026,2 hPa 0,0 l/m 2 min 0 min 300 W/m 12,9 km/h (3 Bft) 97,92 %
24.08.2021 18:28 22,4 C 27,2 C 20,0 C 56 % 1026,2 hPa 0,0 l/m 2 min 0 min 294 W/m 12,9 km/h (3 Bft) 97,87 %
24.08.2021 18:30 22,3 C 26,7 C 20,0 C 56 % 1026,2 hPa 0,0 l/m 2 min 0 min 286 W/m 16,1 km/h (3 Bft) 97,83 %
24.08.2021 18:32 22,3 C 27,2 C 20,0 C 56 % 1026,2 hPa 0,0 l/m 2 min 0 min 279 W/m 12,9 km/h (3 Bft) 100,00 %
24.08.2021 18:34 22,2 C 27,2 C 20,0 C 56 % 1026,2 hPa 0,0 l/m 2 min 0 min 272 W/m 12,9 km/h (3 Bft) 97,87 %
24.08.2021 18:36 22,1 C 27,2 C 20,0 C 56 % 1026,2 hPa 0,0 l/m 2 min 0 min 264 W/m 19,3 km/h (3 Bft) 100,00 %
24.08.2021 18:38 22,1 C 26,7 C 20,0 C 56 % 1026,2 hPa 0,0 l/m 2 min 0 min 260 W/m 19,3 km/h (3 Bft) 100,00 %
24.08.2021 18:40 22,1 C 25,6 C 19,5 C 56 % 1026,2 hPa 0,0 l/m 2 min 0 min 221 W/m 12,9 km/h (3 Bft) 100,00 %
24.08.2021 18:42 22,0 C 23,9 C 19,5 C 56 % 1026,2 hPa 0,0 l/m 2 min 0 min 241 W/m 12,9 km/h (3 Bft) 100,00 %
24.08.2021 18:44 21,9 C 23,3 C 18,9 C 55 % 1026,2 hPa 0,0 l/m 2 min 0 min 236 W/m 12,9 km/h (3 Bft) 100,00 %
24.08.2021 18:46 21,8 C 22,8 C 18,9 C 56 % 1026,1 hPa 0,0 l/m 2 min 0 min 227 W/m 12,9 km/h (3 Bft) 100,00 %
24.08.2021 18:48 21,6 C 22,2 C 18,9 C 57 % 1026,1 hPa 0,0 l/m 2 min 0 min 189 W/m 9,7 km/h (2 Bft) 97,87 %
24.08.2021 18:50 21,5 C 22,2 C 18,4 C 57 % 1026,1 hPa 0,0 l/m 0 min 0 min 93 W/m 9,7 km/h (2 Bft) 100,00 %
24.08.2021 18:52 21,4 C 21,7 C 18,4 C 57 % 1026,1 hPa 0,0 l/m 0 min 0 min 64 W/m 12,9 km/h (3 Bft) 100,00 %
24.08.2021 18:54 21,4 C 21,7 C 18,4 C 57 % 1026,2 hPa 0,0 l/m 0 min 0 min 62 W/m 6,4 km/h (2 Bft) 100,00 %
24.08.2021 18:56 21,3 C 21,7 C 18,4 C 58 % 1026,2 hPa 0,0 l/m 0 min 0 min 61 W/m 9,7 km/h (2 Bft) 97,87 %
24.08.2021 18:58 21,2 C 21,1 C 18,4 C 57 % 1026,2 hPa 0,0 l/m 0 min 0 min 60 W/m 19,3 km/h (3 Bft) 100,00 %
24.08.2021 19:00 21,1 C 21,1 C 17,8 C 57 % 1026,2 hPa 0,0 l/m 0 min 0 min 60 W/m 19,3 km/h (3 Bft) 100,00 %
24.08.2021 19:02 21,1 C 21,1 C 17,8 C 58 % 1026,2 hPa 0,0 l/m 0 min 0 min 62 W/m 9,7 km/h (2 Bft) 100,00 %
24.08.2021 19:04 21,1 C 21,1 C 17,8 C 58 % 1026,2 hPa 0,0 l/m 0 min 0 min 62 W/m 9,7 km/h (2 Bft) 100,00 %
24.08.2021 19:06 21,0 C 21,1 C 17,8 C 58 % 1026,2 hPa 0,0 l/m 0 min 0 min 60 W/m 9,7 km/h (2 Bft) 100,00 %
24.08.2021 19:08 21,0 C 21,1 C 17,8 C 58 % 1026,3 hPa 0,0 l/m 0 min 0 min 60 W/m 9,7 km/h (2 Bft) 100,00 %
24.08.2021 19:10 21,0 C 21,1 C 17,8 C 58 % 1026,3 hPa 0,0 l/m 0 min 0 min 59 W/m 16,1 km/h (3 Bft) 97,87 %
24.08.2021 19:12 21,0 C 21,1 C 17,8 C 59 % 1026,3 hPa 0,0 l/m 0 min 0 min 59 W/m 9,7 km/h (2 Bft) 97,87 %
24.08.2021 19:14 20,9 C 21,1 C 17,8 C 58 % 1026,3 hPa 0,0 l/m 0 min 0 min 60 W/m 12,9 km/h (3 Bft) 100,00 %
24.08.2021 19:16 20,8 C 21,1 C 17,8 C 58 % 1026,4 hPa 0,0 l/m 0 min 0 min 58 W/m 12,9 km/h (3 Bft) 100,00 %
24.08.2021 19:18 20,8 C 21,1 C 17,8 C 58 % 1026,4 hPa 0,0 l/m 0 min 0 min 56 W/m 6,4 km/h (2 Bft) 100,00 %
24.08.2021 19:20 20,8 C 20,6 C 17,8 C 59 % 1026,5 hPa 0,0 l/m 0 min 0 min 51 W/m 9,7 km/h (2 Bft) 97,87 %
24.08.2021 19:22 20,8 C 20,6 C 17,3 C 59 % 1026,5 hPa 0,0 l/m 0 min 0 min 49 W/m 12,9 km/h (3 Bft) 97,87 %
24.08.2021 19:24 20,6 C 20,6 C 17,3 C 59 % 1026,4 hPa 0,0 l/m 0 min 0 min 46 W/m 16,1 km/h (3 Bft) 100,00 %
24.08.2021 19:26 20,6 C 20,0 C 17,3 C 58 % 1026,4 hPa 0,0 l/m 0 min 0 min 46 W/m 16,1 km/h (3 Bft) 100,00 %
24.08.2021 19:28 20,5 C 20,0 C 17,3 C 59 % 1026,4 hPa 0,0 l/m 0 min 0 min 45 W/m 12,9 km/h (3 Bft) 100,00 %
24.08.2021 19:30 20,5 C 20,0 C 17,3 C 59 % 1026,4 hPa 0,0 l/m 0 min 0 min 43 W/m 6,4 km/h (2 Bft) 95,74 %
24.08.2021 19:32 20,4 C 20,0 C 17,3 C 59 % 1026,4 hPa 0,0 l/m 0 min 0 min 41 W/m 6,4 km/h (2 Bft) 97,87 %
24.08.2021 19:34 20,3 C 20,0 C 16,7 C 59 % 1026,4 hPa 0,0 l/m 0 min 0 min 40 W/m 6,4 km/h (2 Bft) 97,87 %
24.08.2021 19:36 20,2 C 20,0 C 16,7 C 60 % 1026,4 hPa 0,0 l/m 0 min 0 min 39 W/m 6,4 km/h (2 Bft) 97,87 %
24.08.2021 19:38 20,1 C 20,0 C 16,7 C 59 % 1026,4 hPa 0,0 l/m 0 min 0 min 38 W/m 9,7 km/h (2 Bft) 97,67 %
24.08.2021 19:40 20,1 C 20,0 C 16,7 C 61 % 1026,4 hPa 0,0 l/m 0 min 0 min 39 W/m 6,4 km/h (2 Bft) 97,83 %
24.08.2021 19:42 20,0 C 19,4 C 16,7 C 60 % 1026,4 hPa 0,0 l/m 0 min 0 min 37 W/m 9,7 km/h (2 Bft) 97,87 %
24.08.2021 19:44 20,0 C 19,4 C 16,7 C 61 % 1026,3 hPa 0,0 l/m 0 min 0 min 33 W/m 6,4 km/h (2 Bft) 95,74 %
24.08.2021 19:46 19,9 C 19,4 C 16,7 C 61 % 1026,3 hPa 0,0 l/m 0 min 0 min 32 W/m 6,4 km/h (2 Bft) 100,00 %
24.08.2021 19:48 19,9 C 19,4 C 16,7 C 61 % 1026,3 hPa 0,0 l/m 0 min 0 min 29 W/m 6,4 km/h (2 Bft) 97,87 %
24.08.2021 19:50 19,9 C 19,4 C 16,1 C 61 % 1026,3 hPa 0,0 l/m 0 min 0 min 26 W/m 6,4 km/h (2 Bft) 97,87 %
24.08.2021 19:52 19,8 C 19,4 C 16,1 C 61 % 1026,3 hPa 0,0 l/m 0 min 0 min 26 W/m 9,7 km/h (2 Bft) 97,83 %
24.08.2021 19:54 19,8 C 19,4 C 16,1 C 61 % 1026,2 hPa 0,0 l/m 0 min 0 min 26 W/m 6,4 km/h (2 Bft) 97,87 %
24.08.2021 19:56 19,7 C 18,9 C 16,1 C 61 % 1026,3 hPa 0,0 l/m 0 min 0 min 26 W/m 6,4 km/h (2 Bft) 97,87 %
24.08.2021 19:58 19,7 C 18,9 C 16,1 C 62 % 1026,3 hPa 0,0 l/m 0 min 0 min 25 W/m 6,4 km/h (2 Bft) 97,87 %
24.08.2021 20:00 19,6 C 18,9 C 16,1 C 63 % 1026,3 hPa 0,0 l/m 0 min 0 min 25 W/m 6,4 km/h (2 Bft) 97,87 %
24.08.2021 20:02 19,6 C 18,9 C 16,1 C 62 % 1026,3 hPa 0,0 l/m 0 min 0 min 24 W/m 9,7 km/h (2 Bft) 97,87 %
24.08.2021 20:04 19,5 C 18,9 C 16,1 C 62 % 1026,3 hPa 0,0 l/m 0 min 0 min 22 W/m 6,4 km/h (2 Bft) 100,00 %
24.08.2021 20:06 19,5 C 18,9 C 15,6 C 64 % 1026,3 hPa 0,0 l/m 0 min 0 min 19 W/m 3,2 km/h (1 Bft) 97,92 %
24.08.2021 20:08 19,4 C 18,9 C 15,6 C 64 % 1026,3 hPa 0,0 l/m 0 min 0 min 18 W/m 9,7 km/h (2 Bft) 100,00 %
24.08.2021 20:10 19,4 C 18,9 C 15,6 C 64 % 1026,3 hPa 0,0 l/m 0 min 0 min 18 W/m 6,4 km/h (2 Bft) 100,00 %
24.08.2021 20:12 19,3 C 18,9 C 15,6 C 63 % 1026,3 hPa 0,0 l/m 0 min 0 min 16 W/m 6,4 km/h (2 Bft) 100,00 %
24.08.2021 20:14 19,2 C 18,3 C 15,6 C 64 % 1026,3 hPa 0,0 l/m 0 min 0 min 14 W/m 6,4 km/h (2 Bft) 97,83 %
24.08.2021 20:16 19,1 C 18,3 C 15,6 C 64 % 1026,4 hPa 0,0 l/m 0 min 0 min 14 W/m 6,4 km/h (2 Bft) 91,49 %
24.08.2021 20:18 19,1 C 18,3 C 15,6 C 64 % 1026,4 hPa 0,0 l/m 0 min 0 min 12 W/m 12,9 km/h (3 Bft) 97,87 %
24.08.2021 20:20 19,0 C 18,3 C 15,6 C 65 % 1026,3 hPa 0,0 l/m 0 min 0 min 12 W/m 9,7 km/h (2 Bft) 82,98 %
24.08.2021 20:22 19,0 C 18,3 C 15,6 C 64 % 1026,3 hPa 0,0 l/m 0 min 0 min 11 W/m 6,4 km/h (2 Bft) 95,74 %
24.08.2021 20:24 18,9 C 18,3 C 15,6 C 65 % 1026,3 hPa 0,0 l/m 0 min 0 min 11 W/m 3,2 km/h (1 Bft) 95,74 %
24.08.2021 20:26 18,9 C 18,3 C 15,6 C 66 % 1026,3 hPa 0,0 l/m 0 min 0 min 10 W/m 6,4 km/h (2 Bft) 95,65 %
24.08.2021 20:28 18,9 C 17,8 C 15,0 C 66 % 1026,3 hPa 0,0 l/m 0 min 0 min 9 W/m 3,2 km/h (1 Bft) 95,74 %
24.08.2021 20:30 18,8 C 17,8 C 15,0 C 66 % 1026,3 hPa 0,0 l/m 0 min 0 min 7 W/m 3,2 km/h (1 Bft) 95,74 %
24.08.2021 20:32 18,7 C 17,8 C 15,0 C 66 % 1026,4 hPa 0,0 l/m 0 min 0 min 6 W/m 3,2 km/h (1 Bft) 95,74 %
24.08.2021 20:34 18,6 C 17,8 C 15,0 C 67 % 1026,4 hPa 0,0 l/m 0 min 0 min 5 W/m 6,4 km/h (2 Bft) 95,74 %
24.08.2021 20:36 18,6 C 17,8 C 15,0 C 67 % 1026,3 hPa 0,0 l/m 0 min 0 min 5 W/m 3,2 km/h (1 Bft) 95,74 %
24.08.2021 20:38 18,5 C 17,2 C 14,5 C 67 % 1026,4 hPa 0,0 l/m 0 min 0 min 0 W/m 3,2 km/h (1 Bft) 93,48 %
24.08.2021 20:40 18,5 C 17,2 C 14,5 C 67 % 1026,3 hPa 0,0 l/m 0 min 0 min 0 W/m 3,2 km/h (1 Bft) 91,49 %
24.08.2021 20:42 18,4 C 17,2 C 14,5 C 68 % 1026,4 hPa 0,0 l/m 0 min 0 min 0 W/m 3,2 km/h (1 Bft) 95,74 %
24.08.2021 20:44 18,3 C 17,2 C 14,5 C 69 % 1026,4 hPa 0,0 l/m 0 min 0 min 0 W/m 3,2 km/h (1 Bft) 95,74 %
24.08.2021 20:46 18,2 C 17,2 C 14,5 C 69 % 1026,3 hPa 0,0 l/m 0 min 0 min 0 W/m 6,4 km/h (2 Bft) 93,62 %
24.08.2021 20:48 18,1 C 17,2 C 14,5 C 69 % 1026,4 hPa 0,0 l/m 0 min 0 min 0 W/m 3,2 km/h (1 Bft) 95,74 %
24.08.2021 20:50 18,1 C 16,7 C 14,5 C 69 % 1026,4 hPa 0,0 l/m 0 min 0 min 0 W/m 3,2 km/h (1 Bft) 93,48 %
24.08.2021 20:52 18,0 C 16,7 C 14,5 C 69 % 1026,5 hPa 0,0 l/m 0 min 0 min 0 W/m 3,2 km/h (1 Bft) 95,74 %
24.08.2021 20:54 17,9 C 16,7 C 13,9 C 69 % 1026,5 hPa 0,0 l/m 0 min 0 min 0 W/m 3,2 km/h (1 Bft) 95,74 %
24.08.2021 20:56 17,9 C 16,7 C 13,9 C 69 % 1026,5 hPa 0,0 l/m 0 min 0 min 0 W/m 3,2 km/h (1 Bft) 91,49 %
24.08.2021 20:58 17,8 C 16,7 C 13,9 C 70 % 1026,5 hPa 0,0 l/m 0 min 0 min 0 W/m 3,2 km/h (1 Bft) 95,74 %
24.08.2021 21:00 17,8 C 16,7 C 13,9 C 70 % 1026,5 hPa 0,0 l/m 0 min 0 min 0 W/m 6,4 km/h (2 Bft) 95,74 %
24.08.2021 21:02 17,7 C 16,7 C 13,9 C 70 % 1026,5 hPa 0,0 l/m 0 min 0 min 0 W/m 3,2 km/h (1 Bft) 95,65 %
24.08.2021 21:04 17,6 C 16,7 C 13,9 C 70 % 1026,6 hPa 0,0 l/m 0 min 0 min 0 W/m 3,2 km/h (1 Bft) 95,74 %
24.08.2021 21:06 17,6 C 16,7 C 13,9 C 70 % 1026,6 hPa 0,0 l/m 0 min 0 min 0 W/m 3,2 km/h (1 Bft) 97,87 %
24.08.2021 21:08 17,5 C 16,7 C 13,9 C 71 % 1026,7 hPa 0,0 l/m 0 min 0 min 0 W/m 3,2 km/h (1 Bft) 100,00 %
24.08.2021 21:10 17,5 C 16,7 C 13,9 C 71 % 1026,6 hPa 0,0 l/m 0 min 0 min 0 W/m 3,2 km/h (1 Bft) 100,00 %
24.08.2021 21:12 17,4 C 16,1 C 13,9 C 71 % 1026,6 hPa 0,0 l/m 0 min 0 min 0 W/m 3,2 km/h (1 Bft) 95,65 %
24.08.2021 21:14 17,4 C 16,1 C 13,9 C 71 % 1026,7 hPa 0,0 l/m 0 min 0 min 0 W/m 3,2 km/h (1 Bft) 100,00 %
24.08.2021 21:16 17,3 C 16,1 C 13,9 C 71 % 1026,7 hPa 0,0 l/m 0 min 0 min 0 W/m 6,4 km/h (2 Bft) 100,00 %
24.08.2021 21:18 17,3 C 16,1 C 13,9 C 71 % 1026,7 hPa 0,0 l/m 0 min 0 min 0 W/m 3,2 km/h (1 Bft) 97,87 %
24.08.2021 21:20 17,1 C 16,1 C 13,9 C 71 % 1026,7 hPa 0,0 l/m 0 min 0 min 0 W/m 3,2 km/h (1 Bft) 95,74 %
24.08.2021 21:22 17,1 C 16,1 C 13,4 C 71 % 1026,7 hPa 0,0 l/m 0 min 0 min 0 W/m 3,2 km/h (1 Bft) 97,87 %
24.08.2021 21:24 17,1 C 16,1 C 13,4 C 71 % 1026,7 hPa 0,0 l/m 0 min 0 min 0 W/m 3,2 km/h (1 Bft) 95,65 %
24.08.2021 21:26 17,0 C 16,1 C 13,4 C 71 % 1026,7 hPa 0,0 l/m 0 min 0 min 0 W/m 3,2 km/h (1 Bft) 95,74 %
24.08.2021 21:28 17,0 C 16,1 C 13,4 C 71 % 1026,7 hPa 0,0 l/m 0 min 0 min 0 W/m 3,2 km/h (1 Bft) 97,87 %
24.08.2021 21:30 17,0 C 16,1 C 13,4 C 71 % 1026,7 hPa 0,0 l/m 0 min 0 min 0 W/m 3,2 km/h (1 Bft) 97,87 %
24.08.2021 21:32 16,9 C 16,1 C 13,4 C 71 % 1026,7 hPa 0,0 l/m 0 min 0 min 0 W/m 3,2 km/h (1 Bft) 97,87 %
24.08.2021 21:34 16,9 C 16,1 C 13,4 C 72 % 1026,6 hPa 0,0 l/m 0 min 0 min 0 W/m 6,4 km/h (2 Bft) 97,87 %
24.08.2021 21:36 16,9 C 16,1 C 13,4 C 72 % 1026,5 hPa 0,0 l/m 0 min 0 min 0 W/m 3,2 km/h (1 Bft) 97,83 %
24.08.2021 21:38 16,8 C 15,6 C 13,4 C 72 % 1026,5 hPa 0,0 l/m 0 min 0 min 0 W/m 3,2 km/h (1 Bft) 97,87 %
24.08.2021 21:40 16,8 C 15,6 C 13,4 C 72 % 1026,5 hPa 0,0 l/m 0 min 0 min 0 W/m 3,2 km/h (1 Bft) 97,87 %
24.08.2021 21:42 16,8 C 15,6 C 13,4 C 72 % 1026,6 hPa 0,0 l/m 0 min 0 min 0 W/m 3,2 km/h (1 Bft) 97,87 %
24.08.2021 21:44 16,7 C 15,6 C 13,4 C 72 % 1026,5 hPa 0,0 l/m 0 min 0 min 0 W/m 3,2 km/h (1 Bft) 95,74 %
24.08.2021 21:46 16,6 C 15,6 C 13,4 C 72 % 1026,5 hPa 0,0 l/m 0 min 0 min 0 W/m 6,4 km/h (2 Bft) 97,87 %
24.08.2021 21:48 16,6 C 15,6 C 13,4 C 72 % 1026,6 hPa 0,0 l/m 0 min 0 min 0 W/m 3,2 km/h (1 Bft) 100,00 %
24.08.2021 21:50 16,5 C 15,6 C 13,4 C 72 % 1026,6 hPa 0,0 l/m 0 min 0 min 0 W/m 3,2 km/h (1 Bft) 97,87 %
24.08.2021 21:52 16,5 C 15,6 C 13,4 C 73 % 1026,6 hPa 0,0 l/m 0 min 0 min 0 W/m 3,2 km/h (1 Bft) 97,87 %
24.08.2021 21:54 16,5 C 15,6 C 13,4 C 73 % 1026,6 hPa 0,0 l/m 0 min 0 min 0 W/m 3,2 km/h (1 Bft) 100,00 %
24.08.2021 21:56 16,5 C 15,6 C 13,4 C 73 % 1026,6 hPa 0,0 l/m 0 min 0 min 0 W/m 3,2 km/h (1 Bft) 100,00 %
24.08.2021 21:58 16,4 C 15,6 C 13,4 C 73 % 1026,6 hPa 0,0 l/m 0 min 0 min 0 W/m 3,2 km/h (1 Bft) 97,87 %
24.08.2021 22:00 16,4 C 15,6 C 13,4 C 73 % 1026,5 hPa 0,0 l/m 0 min 0 min 0 W/m 3,2 km/h (1 Bft) 100,00 %
24.08.2021 22:02 16,4 C 15,6 C 12,8 C 73 % 1026,5 hPa 0,0 l/m 0 min 0 min 0 W/m 3,2 km/h (1 Bft) 100,00 %
24.08.2021 22:04 16,3 C 15,6 C 12,8 C 73 % 1026,5 hPa 0,0 l/m 0 min 0 min 0 W/m 3,2 km/h (1 Bft) 100,00 %
24.08.2021 22:06 16,3 C 15,0 C 12,8 C 74 % 1026,5 hPa 0,0 l/m 0 min 0 min 0 W/m 0,0 km/h (0 Bft) 100,00 %
24.08.2021 22:08 16,3 C 15,0 C 12,8 C 73 % 1026,5 hPa 0,0 l/m 0 min 0 min 0 W/m 3,2 km/h (1 Bft) 100,00 %
24.08.2021 22:10 16,3 C 15,0 C 12,8 C 73 % 1026,6 hPa 0,0 l/m 0 min 0 min 0 W/m 0,0 km/h (0 Bft) 100,00 %
24.08.2021 22:12 16,2 C 15,0 C 12,8 C 74 % 1026,6 hPa 0,0 l/m 0 min 0 min 0 W/m 0,0 km/h (0 Bft) 100,00 %
24.08.2021 22:14 16,2 C 15,0 C 12,8 C 74 % 1026,5 hPa 0,0 l/m 0 min 0 min 0 W/m 3,2 km/h (1 Bft) 100,00 %
24.08.2021 22:16 16,1 C 15,0 C 12,8 C 74 % 1026,5 hPa 0,0 l/m 0 min 0 min 0 W/m 3,2 km/h (1 Bft) 97,87 %
24.08.2021 22:18 16,1 C 15,0 C 12,8 C 74 % 1026,6 hPa 0,0 l/m 0 min 0 min 0 W/m 3,2 km/h (1 Bft) 100,00 %
24.08.2021 22:20 16,1 C 15,6 C 12,8 C 73 % 1026,5 hPa 0,0 l/m 0 min 0 min 0 W/m 9,7 km/h (2 Bft) 100,00 %
24.08.2021 22:22 16,1 C 15,6 C 12,8 C 73 % 1026,5 hPa 0,0 l/m 0 min 0 min 0 W/m 3,2 km/h (1 Bft) 97,87 %
24.08.2021 22:24 16,1 C 15,6 C 12,8 C 73 % 1026,7 hPa 0,0 l/m 0 min 0 min 0 W/m 3,2 km/h (1 Bft) 100,00 %
24.08.2021 22:26 16,1 C 15,6 C 12,8 C 73 % 1026,6 hPa 0,0 l/m 0 min 0 min 0 W/m 3,2 km/h (1 Bft) 100,00 %
24.08.2021 22:28 16,1 C 15,6 C 12,8 C 73 % 1026,6 hPa 0,0 l/m 0 min 0 min 0 W/m 3,2 km/h (1 Bft) 100,00 %
24.08.2021 22:30 16,1 C 15,0 C 12,8 C 74 % 1026,5 hPa 0,0 l/m 0 min 0 min 0 W/m 3,2 km/h (1 Bft) 100,00 %
24.08.2021 22:32 16,1 C 15,0 C 12,8 C 74 % 1026,5 hPa 0,0 l/m 0 min 0 min 0 W/m 3,2 km/h (1 Bft) 97,87 %
24.08.2021 22:34 16,1 C 15,0 C 12,8 C 75 % 1026,5 hPa 0,0 l/m 0 min 0 min 0 W/m 3,2 km/h (1 Bft) 95,74 %
24.08.2021 22:36 16,1 C 15,0 C 12,8 C 75 % 1026,5 hPa 0,0 l/m 0 min 0 min 0 W/m 3,2 km/h (1 Bft) 100,00 %
24.08.2021 22:38 16,0 C 15,0 C 12,8 C 75 % 1026,5 hPa 0,0 l/m 0 min 0 min 0 W/m 3,2 km/h (1 Bft) 100,00 %
24.08.2021 22:40 16,0 C 15,0 C 12,8 C 75 % 1026,5 hPa 0,0 l/m 0 min 0 min 0 W/m 3,2 km/h (1 Bft) 100,00 %
24.08.2021 22:42 16,0 C 15,0 C 12,8 C 75 % 1026,5 hPa 0,0 l/m 0 min 0 min 0 W/m 3,2 km/h (1 Bft) 97,87 %
24.08.2021 22:44 15,9 C 15,0 C 12,3 C 75 % 1026,5 hPa 0,0 l/m 0 min 0 min 0 W/m 3,2 km/h (1 Bft) 97,87 %
24.08.2021 22:46 15,9 C 15,0 C 12,3 C 75 % 1026,5 hPa 0,0 l/m 0 min 0 min 0 W/m 3,2 km/h (1 Bft) 97,87 %
24.08.2021 22:48 15,9 C 15,0 C 12,3 C 75 % 1026,5 hPa 0,0 l/m 0 min 0 min 0 W/m 3,2 km/h (1 Bft) 97,83 %
24.08.2021 22:50 15,9 C 14,4 C 12,3 C 75 % 1026,5 hPa 0,0 l/m 0 min 0 min 0 W/m 3,2 km/h (1 Bft) 97,87 %
24.08.2021 22:52 15,8 C 14,4 C 12,3 C 76 % 1026,5 hPa 0,0 l/m 0 min 0 min 0 W/m 0,0 km/h (0 Bft) 97,87 %
24.08.2021 22:54 15,8 C 14,4 C 12,3 C 76 % 1026,5 hPa 0,0 l/m 0 min 0 min 0 W/m 0,0 km/h (0 Bft) 97,87 %
24.08.2021 22:56 15,8 C 14,4 C 12,3 C 76 % 1026,4 hPa 0,0 l/m 0 min 0 min 0 W/m 3,2 km/h (1 Bft) 93,62 %
24.08.2021 22:58 15,7 C 14,4 C 12,3 C 76 % 1026,4 hPa 0,0 l/m 0 min 0 min 0 W/m 3,2 km/h (1 Bft) 97,87 %
24.08.2021 23:00 15,7 C 14,4 C 12,3 C 76 % 1026,4 hPa 0,0 l/m 0 min 0 min 0 W/m 0,0 km/h (0 Bft) 95,65 %
24.08.2021 23:02 15,7 C 14,4 C 12,3 C 76 % 1026,4 hPa 0,0 l/m 0 min 0 min 0 W/m 3,2 km/h (1 Bft) 95,74 %
24.08.2021 23:04 15,6 C 14,4 C 12,3 C 76 % 1026,3 hPa 0,0 l/m 0 min 0 min 0 W/m 0,0 km/h (0 Bft) 95,74 %
24.08.2021 23:06 15,6 C 14,4 C 12,3 C 76 % 1026,3 hPa 0,0 l/m 0 min 0 min 0 W/m 0,0 km/h (0 Bft) 95,74 %
24.08.2021 23:08 15,6 C 14,4 C 12,3 C 76 % 1026,3 hPa 0,0 l/m 0 min 0 min 0 W/m 0,0 km/h (0 Bft) 95,74 %
24.08.2021 23:10 15,6 C 14,4 C 12,3 C 76 % 1026,3 hPa 0,0 l/m 0 min 0 min 0 W/m 0,0 km/h (0 Bft) 96,00 %
24.08.2021 23:12 15,5 C 14,4 C 12,3 C 76 % 1026,3 hPa 0,0 l/m 0 min 0 min 0 W/m 3,2 km/h (1 Bft) 95,65 %
24.08.2021 23:14 15,5 C 14,4 C 12,3 C 76 % 1026,3 hPa 0,0 l/m 0 min 0 min 0 W/m 0,0 km/h (0 Bft) 95,74 %
24.08.2021 23:16 15,5 C 14,4 C 12,3 C 76 % 1026,3 hPa 0,0 l/m 0 min 0 min 0 W/m 0,0 km/h (0 Bft) 95,74 %
24.08.2021 23:18 15,5 C 14,4 C 12,3 C 76 % 1026,3 hPa 0,0 l/m 0 min 0 min 0 W/m 0,0 km/h (0 Bft) 97,87 %
24.08.2021 23:20 15,4 C 14,4 C 12,3 C 76 % 1026,3 hPa 0,0 l/m 0 min 0 min 0 W/m 0,0 km/h (0 Bft) 97,67 %
24.08.2021 23:22 15,4 C 14,4 C 12,3 C 76 % 1026,3 hPa 0,0 l/m 0 min 0 min 0 W/m 3,2 km/h (1 Bft) 95,74 %
24.08.2021 23:24 15,4 C 14,4 C 12,3 C 77 % 1026,3 hPa 0,0 l/m 0 min 0 min 0 W/m 0,0 km/h (0 Bft) 95,83 %
24.08.2021 23:26 15,4 C 14,4 C 12,3 C 77 % 1026,3 hPa 0,0 l/m 0 min 0 min 0 W/m 3,2 km/h (1 Bft) 97,87 %
24.08.2021 23:28 15,3 C 14,4 C 12,3 C 77 % 1026,3 hPa 0,0 l/m 0 min 0 min 0 W/m 0,0 km/h (0 Bft) 97,87 %
24.08.2021 23:30 15,3 C 13,9 C 12,3 C 77 % 1026,3 hPa 0,0 l/m 0 min 0 min 0 W/m 0,0 km/h (0 Bft) 100,00 %
24.08.2021 23:32 15,3 C 13,9 C 12,3 C 77 % 1026,3 hPa 0,0 l/m 0 min 0 min 0 W/m 0,0 km/h (0 Bft) 100,00 %
24.08.2021 23:34 15,3 C 13,9 C 12,3 C 77 % 1026,3 hPa 0,0 l/m 0 min 0 min 0 W/m 0,0 km/h (0 Bft) 100,00 %
24.08.2021 23:36 15,3 C 13,9 C 11,7 C 77 % 1026,4 hPa 0,0 l/m 0 min 0 min 0 W/m 0,0 km/h (0 Bft) 97,87 %
24.08.2021 23:38 15,2 C 13,9 C 11,7 C 77 % 1026,4 hPa 0,0 l/m 0 min 0 min 0 W/m 0,0 km/h (0 Bft) 97,87 %
24.08.2021 23:40 15,1 C 13,9 C 11,7 C 77 % 1026,3 hPa 0,0 l/m 0 min 0 min 0 W/m 3,2 km/h (1 Bft) 97,96 %
24.08.2021 23:42 15,1 C 13,9 C 11,7 C 77 % 1026,4 hPa 0,0 l/m 0 min 0 min 0 W/m 3,2 km/h (1 Bft) 95,74 %
24.08.2021 23:44 15,1 C 13,9 C 11,7 C 78 % 1026,4 hPa 0,0 l/m 0 min 0 min 0 W/m 3,2 km/h (1 Bft) 97,87 %
24.08.2021 23:46 15,1 C 13,9 C 11,7 C 78 % 1026,4 hPa 0,0 l/m 0 min 0 min 0 W/m 0,0 km/h (0 Bft) 95,65 %
24.08.2021 23:48 15,0 C 13,9 C 11,7 C 78 % 1026,3 hPa 0,0 l/m 0 min 0 min 0 W/m 3,2 km/h (1 Bft) 95,74 %
24.08.2021 23:50 15,0 C 13,9 C 11,7 C 78 % 1026,3 hPa 0,0 l/m 0 min 0 min 0 W/m 3,2 km/h (1 Bft) 97,87 %
24.08.2021 23:52 15,0 C 13,9 C 11,7 C 78 % 1026,4 hPa 0,0 l/m 0 min 0 min 0 W/m 0,0 km/h (0 Bft) 97,87 %
24.08.2021 23:54 15,0 C 13,9 C 11,7 C 78 % 1026,4 hPa 0,0 l/m 0 min 0 min 0 W/m 6,4 km/h (2 Bft) 97,87 %
24.08.2021 23:56 15,0 C 13,9 C 11,7 C 78 % 1026,4 hPa 0,0 l/m 0 min 0 min 0 W/m 6,4 km/h (2 Bft) 97,83 %
24.08.2021 23:58 14,9 C 13,9 C 11,7 C 78 % 1026,4 hPa 0,0 l/m 0 min 0 min 0 W/m 0,0 km/h (0 Bft) 95,74 %
_ Min-Zeit 06:36 06:08 06:08 14:26 00:02 - - - - 00:22 07:30
Minimum _ 12,7 C 11,7 C 10,6 C 50 % 1025,8 hPa - - - - 0,0 km/h (0 Bft) 51,11 %
_ Max-Zeit 14:24 16:32 12:04 07:54 10:18 00:00 12:08 00:00 13:04 12:46 00:00
Maximum _ 22,9 C 30,6 C 22,8 C 93 % 1028,1 hPa 0,0 l/m 4 min 0 min 854 W/m 41,8 km/h
O-NO (6 Bft)
100,00 %
Durchschnitt _ 17,7 C 18,5 C 15,2 C 73 % 1026,8 hPa #0,0 l/m #9:18 h #0 min. 412 W/m 8,9 km/h (2 Bft) 97,29 %
© 2021 W. Hausmann